GFSNE_500_spd_000.txt.gz
Wind_Speed
68 66 65 65 63 62 61 58 54 53 52 54 61 68 74 82 87 89 90 88 86 84 80 78 75 72 71 68 73 70 60 64 65 61 61 65 70 65
65 63 61 61 62 60 57 54 52 52 50 50 53 62 70 77 84 90 90 92 92 90 89 87 83 79 77 75 72 71 68 71 59 69 66 66 69 74
62 62 60 61 60 60 60 58 57 57 55 54 54 57 64 72 77 85 93 93 93 95 93 91 90 87 83 80 78 78 78 66 58 56 68 63 63 67
61 62 62 64 65 66 67 66 66 66 66 64 63 62 62 65 72 76 85 93 96 95 96 97 94 93 91 86 81 80 81 88 80 55 66 56 58 60
60 61 62 64 65 67 69 69 70 70 69 70 70 72 72 72 71 74 78 85 93 97 97 97 99 98 96 93 89 85 83 80 81 82 61 62 62 59
61 63 64 65 66 66 67 68 69 70 71 73 74 75 78 77 78 78 77 80 84 92 97 99 99 101 101 99 95 92 88 84 80 79 82 67 64 63
56 56 57 56 55 53 52 52 56 58 61 66 69 74 76 80 83 82 83 84 83 85 90 97 98 99 101 102 100 98 94 89 85 84 85 88 70 65
50 42 39 36 33 31 31 32 32 31 28 33 42 56 65 74 78 82 85 86 88 89 87 88 93 99 102 102 101 100 99 96 92 88 89 86 86 70
33 28 27 26 29 30 32 33 31 31 30 29 25 25 31 40 57 72 80 84 88 88 91 91 91 91 94 101 105 104 102 100 97 95 92 91 89 79
25 26 30 33 36 36 35 36 36 36 36 36 35 34 32 35 37 43 60 74 81 83 85 91 94 96 98 98 99 103 106 102 100 99 98 96 95 92
28 33 36 37 37 38 38 39 39 38 38 38 38 38 37 35 37 40 36 40 51 63 72 79 84 90 96 100 102 103 104 105 101 99 101 99 98 95
31 32 35 37 37 35 33 29 27 32 35 36 39 44 43 44 42 42 43 40 38 40 42 45 51 59 75 86 98 104 107 106 107 104 99 101 100 100
29 30 33 33 30 24 23 20 21 27 25 27 31 32 35 39 44 49 49 49 49 46 49 50 46 43 40 41 57 87 103 108 111 111 107 104 101 102
25 23 22 23 24 21 19 17 15 13 12 14 17 20 25 31 37 42 45 51 55 54 55 54 55 54 55 52 48 43 63 95 106 108 112 109 107 104
18 15 15 18 16 12 12 9 10 12 14 16 21 24 26 29 30 31 34 37 44 50 57 58 57 59 60 55 50 47 44 55 74 98 106 108 109 108
18 17 17 21 17 9 5 6 7 9 10 11 13 16 19 22 26 28 31 34 37 41 45 57 60 60 59 55 52 51 47 48 52 56 72 91 103 105
13 10 14 16 18 12 10 10 14 15 16 17 19 22 23 27 30 32 36 39 37 40 44 47 54 60 58 56 52 47 49 46 42 47 52 67 85 95
7 7 9 9 10 14 15 19 19 16 13 12 14 19 25 28 27 30 33 36 36 37 37 41 46 48 50 49 48 47 45 45 42 47 53 57 62 76
10 9 6 4 6 10 13 16 17 16 14 20 23 22 21 12 12 11 12 20 26 29 31 35 40 42 44 43 44 45 46 45 42 40 49 51 52 55
8 11 9 6 5 4 7 12 18 22 24 20 18 18 19 11 7 12 14 16 18 22 27 30 33 34 36 41 42 43 44 41 47 37 45 44 47 48
4 7 11 9 6 4 6 10 16 19 22 24 20 17 20 14 7 5 10 14 16 18 21 25 25 29 36 44 45 40 37 35 33 39 40 38 39 45
2 4 7 8 9 10 11 12 14 16 20 25 27 21 20 20 13 7 1 6 10 15 19 20 23 27 37 52 50 43 34 31 36 39 41 36 42 40
1 2 4 4 5 8 10 12 14 15 18 21 24 26 22 23 24 15 9 3 3 5 13 18 20 24 31 34 37 37 39 36 31 35 39 38 33 43

GFSNE_500_spd_003.txt.gz
Wind_Speed
71 70 68 77 78 74 71 68 65 61 58 56 56 62 65 68 75 77 82 84 87 92 88 85 77 74 79 79 82 92 88 81 67 59 63 55 60 65
73 78 81 80 78 74 70 66 65 63 58 56 53 55 58 60 65 73 76 79 82 89 94 91 82 68 70 74 79 85 90 85 77 57 50 54 57 57
76 78 76 73 70 68 67 66 66 65 61 57 56 54 55 55 58 65 71 74 79 82 93 94 93 84 73 76 81 76 75 79 84 82 54 50 55 56
61 63 64 65 65 66 68 68 69 68 67 63 62 60 59 58 59 61 66 72 74 79 83 96 97 97 93 81 82 78 77 79 82 89 82 65 61 52
57 59 60 61 61 63 65 66 67 68 69 68 65 65 65 65 65 64 65 67 71 73 79 85 97 99 102 93 82 83 84 83 84 80 81 84 62 56
55 57 60 62 64 65 66 66 67 68 70 71 71 71 70 70 72 71 71 70 69 71 72 78 86 98 105 104 98 90 89 87 86 84 84 86 73 61
57 57 58 59 60 62 63 62 62 63 65 67 68 70 72 75 76 76 77 76 77 75 73 74 79 86 98 106 104 99 98 94 91 89 87 86 88 85
52 53 57 59 52 46 40 36 34 35 37 41 46 54 62 69 75 78 79 81 78 78 81 79 77 80 88 98 105 105 103 100 99 97 91 87 88 89
51 54 47 37 33 32 33 34 34 35 33 32 31 30 32 37 54 68 76 81 82 81 82 83 83 79 82 89 96 103 106 105 103 103 100 94 91 91
48 38 28 28 32 37 39 39 40 40 40 40 38 37 35 34 31 34 48 69 79 82 84 83 84 82 84 83 88 95 98 105 107 105 103 102 98 94
32 27 29 32 37 40 40 39 38 38 41 44 44 41 40 42 41 39 35 36 44 60 76 84 84 86 86 87 86 86 91 98 103 107 107 105 105 101
24 27 32 35 35 36 36 34 29 29 28 28 36 41 44 44 45 44 42 36 37 35 45 66 77 85 87 86 88 89 89 91 96 101 106 108 108 107
22 27 31 31 31 31 30 23 19 19 20 24 26 32 37 39 44 48 49 45 39 34 39 40 51 67 79 80 83 87 91 93 92 94 100 105 108 108
22 25 24 23 23 24 19 12 12 13 16 19 19 18 22 29 34 38 43 47 49 45 44 38 38 44 52 60 67 73 83 88 93 96 97 99 104 106
19 15 12 9 12 13 11 8 7 10 12 14 16 18 20 23 23 23 27 35 41 46 51 49 46 43 43 46 47 48 55 67 76 86 94 100 101 102
13 12 9 6 14 12 13 14 14 15 17 19 18 17 17 19 21 24 26 28 29 32 40 45 53 54 52 50 53 52 53 53 50 54 61 84 101 105
10 10 4 2 6 8 12 17 18 17 18 17 16 16 19 22 25 27 28 28 28 30 31 35 42 48 55 57 56 57 60 59 53 51 49 52 62 89
7 4 0 1 5 9 11 13 19 21 20 18 17 19 19 21 24 27 32 36 37 38 37 38 38 42 46 50 57 60 60 61 59 60 56 53 50 49
4 3 1 2 3 7 9 16 20 19 20 20 22 19 18 22 18 13 16 20 28 35 39 42 44 43 41 44 48 55 60 60 59 58 55 55 54 54
3 6 5 5 2 2 7 14 14 17 21 24 24 23 22 22 17 12 11 14 13 15 19 25 31 36 39 38 41 45 49 56 57 59 58 54 48 45
3 3 5 8 7 5 5 6 11 16 20 24 25 25 27 26 18 15 8 9 12 13 15 17 21 24 29 32 34 36 42 46 49 48 48 41 39 41
2 3 3 5 6 6 5 7 10 14 17 20 22 23 24 27 29 20 13 8 8 12 14 14 15 19 25 27 31 34 38 40 41 39 35 36 38 43
0 2 4 5 7 8 9 10 11 13 14 15 18 19 20 22 25 27 25 17 11 7 8 13 13 13 15 21 29 35 38 38 37 35 30 29 37 40

GFSNE_500_spd_006.txt.gz
Wind_Speed
62 53 61 71 78 75 73 72 77 78 73 73 64 59 57 58 64 71 74 77 79 84 84 88 93 92 87 85 82 80 81 53 58 73 67 80 78 64
58 62 63 68 70 74 78 80 82 85 79 67 63 56 55 57 59 63 69 74 77 82 83 84 86 92 89 88 87 75 78 80 52 61 74 70 70 73
64 68 71 74 73 78 81 81 79 75 71 62 61 58 55 55 57 60 63 67 72 77 81 81 81 87 91 91 91 90 71 76 74 67 66 76 65 69
52 54 57 59 61 63 64 64 65 66 67 64 62 62 59 58 58 58 60 61 63 68 73 76 77 80 89 89 94 94 93 76 78 86 76 74 75 73
50 51 52 53 55 59 60 60 61 62 64 64 62 62 62 61 60 61 62 63 62 64 67 67 70 74 82 86 89 96 94 78 73 79 83 80 77 69
45 47 50 53 55 56 59 61 63 64 65 65 65 65 67 68 68 66 65 63 63 66 66 66 65 67 75 80 85 89 97 96 81 80 83 83 76 83
50 51 52 54 56 59 60 59 59 62 64 66 67 67 67 67 68 69 69 69 65 65 68 67 65 64 68 74 79 83 91 97 93 78 75 81 81 87
49 50 52 55 56 56 56 59 59 52 43 40 38 37 39 50 62 69 70 70 69 67 69 69 71 67 66 70 74 78 83 97 103 90 75 77 79 78
49 50 50 51 51 52 48 38 33 33 34 36 37 37 35 33 35 46 55 62 65 68 71 70 71 72 71 68 70 72 78 83 102 102 100 83 82 80
48 47 47 45 45 37 32 33 37 41 43 45 44 42 41 40 37 34 33 37 45 58 67 71 73 74 75 75 71 70 73 78 84 98 101 97 92 87
45 45 41 39 30 31 34 37 37 38 41 42 42 41 39 42 43 41 37 33 28 29 45 66 70 74 76 76 76 73 71 74 79 86 96 102 99 99
40 38 35 27 28 32 33 30 29 32 32 31 30 29 29 32 39 45 46 41 39 36 37 35 48 65 73 75 77 78 78 76 78 81 85 90 94 100
31 28 25 25 28 26 26 27 23 20 19 19 18 20 24 27 33 35 42 47 45 39 42 34 33 38 55 66 74 78 80 81 80 79 82 84 85 90
22 19 18 21 18 14 10 10 10 9 11 15 17 20 24 25 25 26 33 38 43 46 45 42 38 33 34 42 57 72 78 81 81 81 81 81 81 84
12 13 15 11 4 3 6 11 15 14 15 18 21 21 20 16 18 20 20 26 35 39 42 46 46 43 37 34 38 51 65 75 80 82 83 83 82 80
6 6 6 6 5 3 9 14 14 15 17 16 18 16 14 18 21 22 19 23 25 24 30 38 42 48 45 41 39 41 44 54 66 76 81 82 83 83
2 7 5 6 5 1 8 11 16 16 19 20 18 15 16 17 19 21 22 23 22 25 28 29 33 39 46 49 45 43 44 45 46 54 64 72 77 79
2 4 3 6 5 0 5 11 14 16 20 21 22 19 15 14 16 18 20 24 27 27 29 27 29 30 36 41 47 50 47 45 48 48 46 49 52 58
2 3 2 5 5 3 1 10 12 16 20 22 24 27 29 23 17 13 7 11 14 21 29 31 32 31 30 29 34 40 48 51 51 53 53 50 47 47
3 4 5 4 3 2 1 6 9 13 18 20 21 26 30 32 30 23 15 6 6 7 9 14 21 30 34 35 36 34 32 37 45 52 54 54 53 53
4 3 3 5 5 4 4 6 9 13 16 17 19 20 24 28 31 31 25 16 9 8 10 11 12 13 17 26 34 38 38 36 37 40 45 52 54 53
3 4 4 3 3 4 5 7 9 11 12 13 15 19 21 23 25 27 29 26 17 12 9 11 12 12 13 17 21 26 33 36 35 36 38 41 46 51
1 1 3 4 3 3 5 7 10 10 10 11 13 16 20 21 21 23 25 26 26 20 15 10 5 7 8 10 13 19 23 26 29 31 34 36 39 43

GFSNE_500_spd_009.txt.gz
Wind_Speed
67 57 50 69 71 66 61 74 76 67 65 68 65 69 66 64 63 63 66 73 79 84 86 85 84 86 87 89 90 91 88 89 84 81 71 62 62 74
52 52 61 65 67 65 67 71 75 72 73 70 71 66 65 71 72 74 72 72 77 80 85 87 88 88 88 90 92 92 91 90 89 85 79 68 69 67
47 47 46 58 58 62 66 70 71 71 75 70 72 72 74 75 72 68 65 63 69 74 78 82 85 88 91 91 93 94 92 90 91 86 78 64 66 58
45 45 47 49 53 57 61 65 71 73 75 77 72 70 63 58 59 61 61 61 63 66 69 73 77 81 87 90 91 97 96 86 90 91 83 75 59 51
46 48 48 48 49 52 54 54 55 56 57 59 57 58 59 59 59 61 62 62 63 64 67 69 72 75 79 83 86 88 94 88 85 92 90 87 86 68
50 47 44 43 44 46 48 50 51 52 54 57 58 58 61 61 61 62 63 65 64 65 65 67 68 69 72 75 78 79 82 84 84 88 93 91 91 81
45 45 45 47 49 49 49 49 51 54 56 58 58 57 57 59 59 61 63 67 67 68 68 67 66 66 66 68 69 69 74 77 81 87 93 96 92 88
44 46 48 49 49 49 49 51 53 53 51 52 56 59 56 55 54 56 61 67 69 72 70 68 70 66 65 67 65 65 67 70 76 83 91 97 100 93
48 48 48 48 47 48 48 48 48 49 50 43 34 32 33 35 36 36 36 38 45 57 69 71 69 66 67 66 67 65 64 66 71 78 85 92 99 100
48 47 45 43 44 43 42 42 41 32 32 35 37 39 41 42 44 43 42 39 37 37 44 55 64 64 67 69 67 66 64 63 66 71 78 86 91 93
49 46 43 40 40 39 37 29 27 32 37 38 37 36 37 38 41 45 45 45 41 40 38 35 43 53 62 66 69 67 65 64 64 66 71 78 87 90
45 42 38 35 33 31 21 23 24 25 25 24 25 25 25 26 27 30 37 42 44 44 42 35 35 39 48 58 66 69 68 67 66 65 66 71 79 84
30 29 27 26 24 15 16 12 11 10 10 11 12 14 17 19 22 24 26 30 32 39 46 44 40 37 32 36 52 63 67 69 69 68 65 68 72 79
19 17 18 19 12 11 10 8 9 12 14 16 17 17 19 21 20 22 26 28 29 36 39 44 43 41 39 38 34 44 58 66 70 71 70 67 68 72
11 10 12 12 9 10 6 5 10 13 15 16 17 20 23 22 24 23 21 18 22 22 27 34 42 44 42 40 39 35 37 51 64 71 72 71 70 70
9 6 8 8 11 10 3 3 11 12 14 16 16 15 16 21 22 23 23 21 18 17 21 27 33 37 41 43 42 39 33 34 49 62 70 72 72 71
7 5 4 3 7 6 3 3 8 11 14 17 19 20 17 14 17 21 23 24 22 19 18 21 23 29 35 39 43 44 41 36 33 46 59 69 72 72
6 6 6 7 8 7 4 2 6 10 13 15 19 24 26 25 19 13 13 17 21 21 21 19 18 22 24 30 36 40 42 41 37 35 39 54 64 69
6 6 7 9 9 8 5 1 4 8 11 12 16 20 24 28 29 24 15 7 6 9 16 21 22 21 20 22 24 31 36 41 42 38 36 37 45 57
4 6 5 6 6 6 4 1 3 6 10 12 13 17 21 25 28 31 26 17 7 4 6 11 17 24 27 27 26 26 28 32 36 40 41 39 38 40
6 4 3 4 5 4 2 2 3 5 7 9 11 15 19 22 25 27 28 27 18 10 4 7 9 11 16 23 30 33 32 29 28 30 35 41 43 41
5 5 4 2 1 1 2 2 3 4 6 7 10 13 16 20 20 21 23 25 26 22 15 8 5 9 10 12 16 22 31 35 34 32 30 31 36 43
1 1 2 2 2 2 2 3 4 4 6 7 10 12 14 16 18 19 18 19 21 22 23 17 9 4 7 9 10 13 15 21 32 37 37 34 34 38

GFSNE_500_spd_012.txt.gz
Wind_Speed
74 65 62 65 63 55 57 58 62 69 65 69 65 72 66 70 76 74 69 71 77 80 82 83 82 83 84 85 83 84 85 85 86 85 84 81 79 78
53 50 54 56 50 55 55 57 59 62 63 75 82 75 73 71 70 72 72 69 72 71 75 80 86 87 86 85 84 84 85 87 88 88 87 85 83 83
46 52 49 51 51 50 57 60 61 64 65 62 62 64 67 70 75 75 75 80 81 80 75 77 82 88 90 89 88 86 86 87 89 90 90 90 87 85
48 49 48 48 48 47 47 48 55 64 70 69 67 66 66 67 68 68 71 72 73 73 76 75 79 85 89 92 90 91 89 88 90 92 93 89 90 89
50 50 51 49 48 50 53 51 50 52 55 59 60 64 63 63 66 70 71 73 75 77 78 75 73 75 79 84 88 90 93 93 90 91 93 93 92 90
49 49 48 48 47 47 45 43 43 45 49 51 50 49 53 55 56 58 60 63 65 68 69 69 69 71 71 72 74 78 85 93 93 92 93 95 94 92
46 46 45 44 44 43 41 41 43 44 46 49 49 49 52 55 57 59 61 63 65 67 68 68 70 71 71 71 70 71 73 78 86 86 90 93 95 95
50 50 49 47 45 44 44 44 45 46 46 48 48 47 47 50 53 53 55 57 59 64 67 67 70 70 71 71 69 69 70 71 74 77 79 86 92 95
53 52 50 49 48 47 47 46 46 45 44 44 43 43 44 44 44 43 43 45 49 54 60 63 68 70 71 71 70 68 68 70 70 72 73 75 81 85
52 52 52 49 47 44 42 40 39 38 38 40 39 33 32 35 36 37 39 39 40 40 41 41 46 57 69 74 71 68 69 68 69 69 70 70 75 78
45 45 46 45 43 41 37 33 31 30 30 28 32 32 34 36 38 40 42 45 46 47 47 45 43 41 40 49 67 71 69 67 67 69 69 68 70 75
35 37 37 35 32 31 27 23 21 21 21 20 20 22 24 27 29 31 32 34 38 42 45 49 49 46 44 38 42 57 67 68 67 68 69 68 67 71
29 28 26 21 20 19 17 16 14 11 12 14 15 15 16 18 21 22 24 26 27 27 32 41 45 46 46 41 34 39 54 63 67 68 68 67 68 68
21 17 12 12 11 12 14 11 9 10 12 12 13 15 19 22 25 27 28 27 25 26 30 32 31 35 43 44 38 30 34 55 63 68 69 66 68 69
6 4 5 6 7 8 8 9 7 6 5 7 10 12 13 17 22 25 28 28 28 23 24 27 30 32 36 43 44 41 34 31 52 64 68 68 66 68
7 6 4 6 7 11 11 8 1 2 5 9 12 13 16 15 13 17 22 26 27 26 25 23 23 27 33 37 42 42 39 33 30 46 62 66 67 67
7 5 6 6 9 13 10 6 5 5 6 9 13 16 19 21 20 18 15 18 21 22 23 21 19 20 25 28 33 38 39 38 32 29 41 58 65 68
6 6 8 11 13 12 10 8 6 5 5 8 11 14 16 20 24 25 21 13 10 14 18 19 18 16 19 21 27 31 36 39 39 36 29 35 52 64
4 6 9 11 12 11 9 7 6 5 4 4 8 11 15 19 22 25 27 23 13 6 9 17 20 18 17 18 21 23 29 34 39 42 40 36 31 49
2 3 4 7 8 8 7 6 5 3 2 2 4 9 12 15 18 21 24 27 23 12 5 4 10 18 22 21 19 20 22 27 34 39 42 41 36 33
5 2 2 3 5 7 7 5 4 4 2 1 3 8 10 12 15 17 19 21 24 23 15 5 6 8 10 16 22 25 23 22 24 30 36 41 41 38
4 4 3 2 2 3 4 4 3 3 3 3 5 8 9 10 12 15 16 17 18 21 23 18 9 3 6 8 11 15 24 29 29 27 27 33 39 42
4 1 0 0 1 1 3 4 4 6 6 5 6 7 8 9 11 12 12 12 13 16 18 19 20 14 6 7 8 10 13 16 27 34 34 31 30 36

GFSNE_500_spd_015.txt.gz
Wind_Speed
80 77 75 69 59 48 46 49 50 54 59 65 65 67 75 85 85 81 76 81 77 76 76 77 79 79 78 77 78 78 80 83 84 84 85 85 84 83
59 53 45 42 42 47 47 48 53 44 48 51 59 69 72 71 74 76 73 72 75 75 77 77 79 80 80 81 79 79 79 79 83 85 85 86 86 86
46 45 48 47 47 48 53 51 56 52 51 58 57 56 55 57 59 72 77 71 68 72 67 68 74 76 78 82 84 83 83 83 83 84 86 86 87 88
47 47 46 48 48 49 47 47 49 51 49 52 50 56 61 62 62 64 62 60 68 76 77 71 69 72 76 80 83 86 86 86 87 86 86 86 88 88
48 48 49 49 49 49 48 49 51 53 53 52 50 51 53 56 62 67 67 67 66 68 73 73 72 73 77 81 83 83 84 86 87 87 88 88 89 89
49 48 48 48 47 45 45 44 45 45 47 49 46 47 50 52 53 55 58 62 65 68 71 75 80 83 82 81 84 86 87 86 86 87 89 91 90 91
53 53 52 51 49 48 46 43 42 42 42 41 38 39 42 45 50 53 55 57 59 62 63 64 67 71 74 77 81 84 87 90 91 90 89 90 91 92
50 51 52 53 52 50 48 46 44 43 42 41 39 40 42 44 47 50 53 56 56 60 62 63 66 65 63 63 66 69 72 75 78 81 81 85 90 91
48 48 48 47 48 49 48 46 45 44 43 42 41 40 42 43 45 46 48 52 54 58 61 63 67 68 68 69 69 68 69 70 71 71 71 72 76 84
45 44 43 43 44 43 42 43 43 42 40 39 38 37 37 38 39 40 43 46 49 52 55 58 61 62 65 66 68 70 71 71 71 71 70 68 68 70
40 40 40 37 36 36 35 35 36 35 35 34 32 29 29 30 33 35 36 40 40 42 44 45 44 45 51 59 65 68 69 70 70 70 71 69 68 68
37 36 35 32 29 27 26 26 24 27 26 23 19 17 19 20 24 26 30 34 38 40 42 49 50 51 48 46 46 45 49 58 69 72 70 70 70 70
33 28 27 24 22 19 18 18 18 18 16 13 12 15 19 21 23 23 23 25 26 26 31 38 41 45 49 51 52 49 46 41 37 54 70 72 70 71
19 16 13 9 6 9 12 14 14 13 11 10 14 15 15 16 20 23 27 30 31 30 33 33 32 32 35 40 46 51 51 47 40 37 54 68 73 71
7 4 3 2 2 5 9 13 14 9 8 8 5 1 3 6 9 12 16 22 27 30 31 33 27 29 29 30 33 41 46 47 41 32 38 57 69 72
6 4 4 4 2 3 10 13 10 9 7 8 7 8 10 11 13 15 15 16 20 22 23 25 27 25 24 28 30 32 37 44 42 33 32 35 53 68
7 7 7 6 6 10 12 10 9 11 11 7 6 8 9 11 14 17 19 20 18 16 17 19 21 22 23 23 24 27 33 39 44 41 36 33 33 49
7 7 8 9 9 11 10 9 9 11 8 6 6 7 9 11 13 17 20 23 22 15 9 15 18 20 21 21 19 23 28 34 40 42 39 35 30 32
7 6 5 6 6 7 7 6 5 6 6 4 3 5 7 10 12 16 19 21 24 21 13 8 14 18 19 19 19 18 21 26 33 40 40 37 34 31
6 4 2 2 3 4 4 5 5 6 5 5 2 2 6 8 10 13 15 17 20 23 21 13 8 10 17 19 18 17 18 19 26 33 38 40 40 37
5 4 3 3 5 7 7 7 7 8 7 6 4 3 5 7 8 10 11 12 15 18 21 21 13 6 7 10 16 20 20 18 19 23 31 36 41 42
3 3 3 3 3 4 5 6 7 8 9 8 6 6 5 6 7 8 9 9 10 13 15 17 18 13 7 7 9 9 14 21 25 24 23 26 32 40
11 8 6 4 3 3 4 6 8 8 9 8 8 7 7 8 9 9 9 9 8 9 10 11 12 13 14 11 6 9 9 12 13 22 30 30 27 29

GFSNE_500_spd_021.txt.gz
Wind_Speed
58 55 51 48 44 48 50 48 47 46 44 46 54 61 65 71 77 74 82 84 84 77 76 68 67 70 72 73 73 76 76 74 72 74 74 75 76 76
42 41 42 43 45 47 50 51 49 45 39 36 40 41 46 50 58 70 79 73 80 84 85 81 72 68 76 77 74 73 77 79 76 75 76 76 75 78
44 44 44 45 45 47 48 48 47 46 41 36 39 39 43 40 41 48 62 72 81 69 67 74 81 77 81 78 73 73 74 78 82 79 77 78 78 77
45 47 49 50 50 51 51 50 50 48 43 39 38 41 41 44 45 47 48 61 54 71 84 74 77 77 76 77 79 74 79 77 80 85 83 79 80 81
50 52 53 53 51 51 52 53 53 52 48 44 39 41 43 45 43 47 56 57 56 51 56 63 61 65 62 57 65 72 76 80 77 83 85 85 82 82
53 52 51 50 50 50 51 51 51 51 50 48 44 40 43 44 45 47 50 60 59 61 58 56 57 54 57 57 61 67 64 66 74 79 83 85 88 87
50 48 47 46 47 47 47 46 47 46 46 48 47 44 42 43 46 47 50 53 56 57 60 59 59 61 56 55 53 53 57 60 65 69 75 79 83 86
47 44 44 44 43 42 40 40 40 41 42 44 45 44 43 43 42 43 44 48 52 58 56 60 60 57 56 63 62 60 57 60 64 67 69 73 76 80
45 45 44 44 43 42 39 34 32 33 35 39 41 41 42 42 42 39 39 42 42 45 50 55 54 53 54 57 63 68 69 66 64 64 70 73 74 78
47 47 44 40 39 38 35 34 34 33 31 34 38 36 37 40 40 38 36 36 37 39 43 44 50 49 52 53 55 60 67 70 70 68 67 69 77 77
41 39 36 32 29 30 31 32 32 28 27 28 31 31 31 33 36 36 35 35 36 39 43 45 48 50 52 53 54 54 56 59 65 71 73 73 72 73
32 32 29 24 21 21 21 20 18 21 22 24 26 26 25 27 30 31 32 32 33 34 40 43 42 45 47 50 53 55 56 57 58 59 63 71 76 77
30 29 26 23 18 14 12 11 12 16 16 17 19 20 21 21 21 20 20 20 21 23 31 30 31 37 38 41 43 46 50 54 56 59 61 63 65 68
28 26 25 23 19 14 9 5 3 8 12 15 16 16 15 14 13 14 15 16 17 21 24 27 31 33 33 32 35 42 44 47 48 51 56 60 62 65
26 25 24 20 16 13 8 2 3 8 13 16 16 14 11 10 9 7 5 3 2 5 9 13 17 26 33 34 35 34 33 36 41 46 50 51 52 57
23 22 21 19 19 18 12 6 6 11 14 14 12 11 11 13 12 10 6 4 4 6 10 13 15 15 22 26 32 34 33 33 35 35 38 44 51 53
20 18 18 18 18 18 16 9 7 10 14 16 16 16 16 14 11 8 5 3 4 7 11 15 18 15 11 16 18 25 28 27 28 29 33 35 41 47
19 16 15 14 14 14 12 9 8 11 11 13 14 14 12 9 7 6 4 2 3 6 10 13 17 18 9 11 15 15 17 20 22 25 26 30 35 41
15 16 14 12 11 11 10 7 5 3 6 9 10 9 8 7 4 3 2 0 2 5 8 11 14 17 15 7 12 14 15 17 18 19 22 27 30 33
14 13 13 12 10 9 8 6 2 1 4 6 8 7 6 6 4 2 1 2 3 4 6 8 10 13 13 11 7 13 17 18 17 16 16 18 21 25
15 14 13 11 10 8 7 6 6 5 5 8 10 9 7 7 7 6 5 5 6 5 5 6 8 9 11 11 10 8 6 15 20 19 16 15 17 20
16 17 17 15 12 9 7 7 8 8 8 9 11 12 12 11 11 10 9 8 8 8 8 8 8 8 9 10 11 12 10 7 11 12 18 20 19 17
18 18 18 20 19 16 13 10 8 8 10 12 13 14 14 14 14 13 12 12 12 11 11 11 11 11 11 11 11 11 11 11 10 11 13 12 14 21

GFSNE_500_spd_027.txt.gz
Wind_Speed
62 65 57 52 50 49 49 50 52 50 49 46 46 45 47 48 49 53 61 68 75 81 83 81 71 64 71 80 79 73 75 76 81 82 86 84 84 84
62 67 48 46 46 45 45 45 47 49 50 48 46 47 46 47 47 46 48 52 58 68 80 71 84 81 75 75 75 78 80 77 78 83 88 89 86 86
66 56 50 50 49 49 49 49 50 53 53 51 50 51 51 50 49 48 46 46 48 55 70 83 76 84 85 83 77 69 70 75 78 83 87 89 91 86
62 53 52 52 53 54 55 55 56 57 59 58 56 55 54 55 52 51 49 45 44 46 53 70 82 85 85 90 86 73 74 67 74 80 84 87 91 92
54 53 54 56 55 54 54 54 54 54 55 56 54 53 54 54 55 52 52 49 45 44 43 45 65 80 87 91 95 86 78 71 70 74 82 88 88 91
54 56 55 55 53 51 50 51 51 52 52 52 51 50 50 49 51 51 52 52 46 45 46 48 46 53 70 87 89 92 87 86 76 77 82 86 87 88
53 53 52 49 42 39 41 41 44 49 53 51 47 47 46 46 47 48 49 51 49 48 49 50 49 52 51 64 81 84 88 84 82 80 79 81 86 85
49 47 42 37 42 44 45 45 44 43 41 44 47 44 42 41 42 44 46 47 50 49 47 47 50 48 49 49 55 69 85 83 86 90 82 85 84 85
46 38 35 41 43 44 43 42 41 39 34 34 36 39 40 39 38 36 42 45 47 48 47 48 49 51 49 55 56 62 65 67 70 62 70 79 85 83
39 35 39 40 40 40 39 37 36 35 29 27 29 31 34 36 33 33 37 39 42 47 46 44 47 50 52 47 55 60 60 60 61 66 78 73 76 83
34 36 38 37 38 39 39 35 31 30 24 22 22 24 27 31 31 30 32 35 39 43 45 40 43 42 50 51 43 56 59 56 57 60 68 82 79 76
32 34 35 36 37 38 38 33 28 25 20 16 17 20 23 27 28 25 28 30 34 37 41 35 37 36 40 41 49 55 55 61 66 61 60 61 65 67
28 30 32 33 35 36 37 31 25 21 15 10 6 10 15 18 20 20 22 24 27 31 32 31 35 33 34 40 43 45 49 57 63 68 68 66 66 69
25 27 29 30 32 34 34 30 23 19 13 6 2 5 9 11 12 14 17 19 21 24 27 30 31 32 34 37 40 43 46 48 50 54 62 68 70 71
24 24 26 27 29 30 30 29 23 21 14 9 5 6 8 10 11 13 14 15 17 20 24 27 28 29 31 35 40 44 47 50 52 55 57 60 62 65
26 24 24 25 25 26 27 25 24 20 15 11 9 9 10 11 11 12 12 12 13 14 16 18 18 19 22 25 30 36 42 45 47 51 54 58 62 64
27 23 22 22 23 22 22 21 18 18 15 10 6 5 6 7 8 8 10 11 11 11 11 11 10 9 6 4 4 6 14 22 28 40 44 43 44 49
27 24 21 19 19 20 18 17 15 12 12 11 8 8 9 11 12 13 13 12 12 11 9 8 7 6 5 6 7 6 6 6 8 12 23 31 33 34
25 24 20 20 18 16 17 14 13 10 8 8 6 5 5 6 7 9 10 9 8 7 6 5 3 3 3 5 7 9 8 4 6 7 14 20 24 27
23 24 23 20 19 17 15 14 12 9 7 4 4 2 1 2 3 3 4 5 5 5 4 3 1 0 1 3 3 6 7 6 3 9 12 16 19 20
24 23 24 23 20 20 18 15 14 12 10 8 7 6 5 4 5 5 5 6 6 6 6 5 4 4 4 3 2 3 4 5 4 2 7 16 20 21
27 25 24 24 22 21 21 20 18 15 13 12 11 11 11 12 11 10 9 10 10 9 9 9 8 7 8 8 7 6 6 5 5 4 4 4 8 18
30 27 25 24 24 22 21 22 23 22 19 16 14 14 15 15 15 15 15 15 15 14 14 14 13 12 12 12 12 11 10 9 9 9 8 8 6 7

GFSNE_500_spd_030.txt.gz
Wind_Speed
65 65 60 62 57 54 57 51 51 44 36 35 38 41 43 45 44 41 42 45 52 62 71 78 83 86 86 88 84 82 82 79 77 80 84 85 82 79
55 51 54 52 51 50 52 53 53 53 47 43 41 43 45 46 46 43 42 41 42 48 59 71 78 84 87 87 87 84 82 79 77 78 81 85 86 85
42 49 49 51 52 52 54 54 54 54 53 49 48 47 49 50 50 48 47 45 44 44 46 57 71 80 84 87 89 86 82 80 76 72 78 83 85 89
46 49 51 52 53 53 51 52 52 52 53 53 48 47 51 55 55 54 53 51 46 45 43 45 55 68 79 85 87 84 78 79 78 75 79 78 83 86
48 50 51 53 49 51 49 45 42 43 45 47 44 46 48 51 54 55 56 55 51 48 46 45 46 54 66 76 84 82 78 74 80 84 79 81 81 81
50 52 52 49 48 42 38 42 45 47 48 50 48 45 45 49 51 51 52 52 52 49 48 47 46 47 55 70 69 83 86 81 77 81 82 81 81 81
50 51 47 45 38 40 43 44 45 46 47 48 47 46 47 44 48 47 47 49 48 46 48 48 45 45 46 63 83 77 87 92 87 79 77 83 83 86
50 45 44 38 37 41 42 44 46 47 44 42 41 42 40 37 41 43 42 43 43 45 46 48 46 46 43 47 59 78 79 83 89 88 81 79 81 81
49 43 39 34 37 38 40 44 46 47 43 38 34 35 29 31 33 36 36 37 37 39 43 47 47 45 45 49 48 54 75 86 82 92 95 86 84 82
45 41 34 33 36 37 40 44 45 44 38 32 30 28 24 23 26 30 31 29 28 33 40 43 47 46 46 48 48 46 50 52 72 86 90 90 81 78
42 40 33 32 35 37 41 43 44 39 34 26 24 21 17 18 20 22 26 26 24 29 36 41 45 44 41 43 47 50 46 47 50 54 69 80 77 83
38 36 32 30 33 35 39 41 40 33 27 22 16 14 12 14 16 18 22 22 23 26 33 37 41 41 37 40 44 46 48 45 49 52 54 57 66 74
34 31 29 28 31 33 36 38 38 30 27 19 12 8 5 10 12 15 18 20 19 26 31 33 35 36 33 34 39 40 47 45 40 48 50 55 62 69
34 30 27 25 27 30 32 34 34 30 26 21 13 7 3 2 5 8 11 14 18 22 23 26 29 30 30 30 31 35 40 46 43 42 46 52 52 58
35 28 28 23 24 27 28 29 28 28 24 22 17 12 8 5 5 7 10 12 14 16 18 20 22 25 27 29 28 29 34 39 43 46 50 56 60 64
33 28 28 24 22 23 24 24 24 24 23 19 15 13 10 8 8 8 9 10 11 13 15 17 20 24 27 29 30 31 32 35 40 45 49 53 57 61
32 26 27 28 23 21 21 21 21 20 18 17 15 10 7 5 5 6 7 8 9 11 12 15 17 20 22 25 27 28 30 35 39 44 50 55 58 60
32 27 25 25 24 21 19 19 18 17 14 13 12 11 9 8 7 7 8 10 11 12 11 11 11 12 12 12 14 14 15 16 18 21 29 44 53 53
32 28 24 23 23 21 18 17 16 15 13 10 8 7 7 7 8 9 11 13 14 14 13 13 12 11 12 11 12 10 8 5 3 4 6 8 21 31
33 29 26 23 22 21 20 17 16 14 13 10 7 4 3 2 2 5 7 8 9 9 8 8 8 9 8 8 7 6 5 5 4 2 2 6 9 13
33 32 29 25 23 22 21 19 17 17 14 12 11 9 6 4 4 4 5 6 7 7 7 7 7 6 6 5 5 3 2 2 2 2 1 3 8 12
32 32 32 29 25 22 22 21 19 17 20 17 14 13 12 11 10 8 8 9 9 9 9 9 8 8 7 6 6 6 5 5 3 3 2 2 3 6
29 31 32 32 30 25 22 22 21 20 18 21 21 17 16 15 15 15 15 14 14 13 13 12 12 12 12 11 10 10 10 9 9 8 7 6 6 6

GFSNE_500_spd_033.txt.gz
Wind_Speed
67 56 49 42 41 43 46 49 50 44 39 40 42 45 47 47 43 41 38 41 45 49 55 66 77 88 92 89 90 87 89 82 87 86 84 84 84 82
50 44 41 41 43 47 49 49 52 50 45 43 43 46 47 48 49 48 43 40 40 44 47 52 62 71 81 88 88 87 87 81 82 86 83 82 85 86
43 40 43 45 47 49 51 51 49 50 52 44 45 44 43 46 49 51 50 47 45 44 43 46 52 64 76 81 84 88 88 86 81 80 84 82 85 90
42 44 46 47 49 50 48 48 47 41 43 42 42 43 44 41 42 47 51 54 52 48 46 46 47 53 66 77 83 84 87 85 83 72 69 80 84 86
43 46 48 49 49 46 45 42 38 42 45 46 40 44 44 44 45 45 43 50 55 54 51 48 47 47 52 65 76 85 85 87 85 86 76 73 81 83
45 48 50 49 47 43 41 37 39 42 44 47 46 45 45 43 44 45 45 43 49 54 55 53 49 48 48 50 63 76 86 87 88 90 81 83 81 81
45 48 48 48 44 43 37 37 40 42 46 48 47 45 41 39 39 41 42 43 43 48 51 53 52 50 49 48 50 58 75 87 89 91 84 87 83 79
45 47 46 47 41 38 35 38 40 44 47 48 46 40 35 34 34 37 40 38 37 44 45 47 48 50 51 50 48 49 58 77 85 89 84 76 76 83
45 46 45 44 39 33 33 36 40 46 48 47 42 34 30 29 31 30 30 27 32 38 39 40 44 47 50 51 48 46 48 62 73 82 92 81 81 79
45 44 44 39 37 30 31 35 39 43 45 42 38 29 27 24 24 21 21 21 26 29 32 33 39 43 47 49 47 45 45 50 67 70 76 88 79 85
43 43 42 34 34 29 30 32 37 41 42 38 32 24 20 18 14 12 13 16 20 23 25 29 35 40 44 47 47 45 43 45 55 73 73 82 79 87
41 42 37 31 31 27 28 31 35 37 38 34 28 20 16 10 7 7 9 12 16 18 19 24 31 37 41 46 47 43 42 44 42 46 60 77 73 75
39 38 32 27 29 25 26 29 32 34 35 31 26 19 13 7 3 4 6 11 15 19 20 22 28 33 38 43 44 41 41 42 41 39 45 51 63 75
37 36 30 25 27 23 23 27 29 31 31 29 26 21 14 8 2 2 7 10 14 15 15 20 25 29 33 37 38 38 38 41 41 44 43 47 48 56
35 34 30 24 25 25 21 23 26 27 27 27 23 20 17 12 6 2 3 6 8 10 13 17 20 23 27 31 33 31 34 37 38 42 43 40 44 47
34 33 30 25 22 24 21 19 21 23 24 23 22 18 14 12 9 6 5 5 6 8 11 14 17 20 22 25 27 27 28 31 34 37 44 45 40 42
33 33 31 28 25 23 23 18 18 19 19 20 18 16 14 9 5 3 4 7 8 9 11 13 15 18 20 22 24 25 27 28 30 35 40 45 47 48
31 32 30 28 24 21 21 19 16 16 17 16 15 13 11 10 7 3 1 3 6 8 10 12 13 16 18 21 23 25 26 28 30 33 37 41 45 49
28 31 31 29 25 21 19 19 18 15 15 14 13 11 9 7 6 6 6 6 7 9 9 10 11 11 12 13 15 18 19 20 22 25 29 35 40 46
25 28 31 31 29 25 20 19 18 16 14 14 12 10 9 5 3 2 4 7 9 10 11 11 11 11 11 11 11 12 13 13 13 13 13 12 10 11
25 26 28 29 30 28 24 20 18 17 17 15 14 12 10 9 5 4 5 6 8 10 11 11 11 11 11 12 12 12 11 10 9 9 7 7 7 7
24 24 26 28 29 29 28 24 20 17 16 16 17 17 14 12 12 10 9 10 10 11 11 11 12 12 11 11 12 11 11 10 9 8 7 6 6 8
24 24 24 25 27 28 29 28 24 20 18 18 17 18 21 18 15 15 16 15 15 15 15 15 15 14 14 14 14 13 13 12 11 11 10 9 9 8

GFSNE_500_spd_036.txt.gz
Wind_Speed
94 80 66 53 47 43 45 47 50 47 44 42 44 45 46 47 47 48 47 47 48 44 46 54 62 78 96 102 101 100 98 92 90 96 94 93 91 88
72 59 49 46 45 46 48 49 50 48 45 40 42 44 44 44 46 47 50 50 48 48 45 48 53 59 71 89 99 99 96 91 88 91 94 90 93 92
56 46 43 44 45 46 49 50 48 47 46 37 39 39 40 41 43 45 44 46 51 51 50 45 49 54 59 68 80 94 94 91 79 71 92 91 89 91
43 41 42 44 45 48 50 47 46 43 45 38 37 41 41 42 43 45 45 45 46 49 53 49 49 51 54 60 67 77 85 91 87 71 81 93 96 90
39 41 43 44 46 48 47 46 43 41 38 40 39 42 46 48 48 48 47 46 46 46 48 52 53 50 52 55 62 70 79 84 92 98 90 82 87 86
38 41 43 45 47 47 45 43 41 36 37 41 41 46 50 51 51 48 47 46 45 46 46 46 54 54 52 52 55 63 72 81 82 78 95 89 80 74
39 41 42 45 47 46 46 39 38 35 38 41 45 49 51 51 48 43 41 40 42 43 45 44 48 56 55 53 53 54 59 70 82 86 84 85 80 73
38 39 43 44 45 45 43 38 34 34 38 42 46 49 47 45 41 36 34 34 35 39 42 45 46 52 57 54 52 50 50 55 68 83 76 82 80 80
37 40 42 44 43 42 36 35 32 34 38 43 45 46 43 38 33 29 28 29 31 35 40 42 44 46 52 55 53 50 48 47 53 67 88 83 81 81
37 40 41 42 41 37 33 31 29 33 36 41 44 42 36 29 25 23 22 20 21 24 29 33 38 41 47 51 53 51 49 47 47 53 69 85 78 88
36 38 39 39 38 33 30 27 27 30 34 39 39 37 29 23 18 14 12 11 14 18 21 24 31 35 41 44 49 51 51 48 46 47 56 73 85 67
34 36 36 35 33 29 28 25 24 27 32 35 36 32 25 19 13 10 7 6 8 13 16 21 26 29 34 39 44 48 50 48 46 45 47 62 78 85
32 34 34 32 29 26 26 25 22 25 29 32 32 28 24 16 12 8 5 4 6 10 13 18 21 25 31 36 41 45 47 47 45 44 43 51 68 87
29 31 31 30 28 25 23 24 21 23 26 28 28 26 23 18 12 8 4 2 5 7 10 13 16 19 25 33 38 42 45 45 42 42 40 43 54 73
28 29 30 29 27 25 23 24 22 20 22 25 26 25 21 18 16 11 5 3 5 9 11 14 17 19 22 29 35 38 41 42 39 38 39 41 42 53
25 27 29 29 27 25 22 21 22 18 19 22 23 23 21 18 15 12 9 5 1 4 7 9 12 15 18 23 27 31 35 36 35 34 37 39 41 40
24 25 27 30 30 27 23 21 20 19 16 17 19 20 20 18 15 11 7 4 2 1 5 8 11 14 16 19 23 27 30 29 31 32 34 36 38 40
22 24 25 28 30 29 25 22 20 19 16 15 15 17 18 17 15 11 7 4 1 2 4 8 11 13 15 17 21 25 27 27 29 30 31 34 35 40
21 22 24 25 28 29 28 24 20 19 18 16 14 14 15 15 14 11 8 4 0 3 6 8 10 12 15 18 20 22 24 26 28 29 29 31 32 35
22 22 23 24 25 26 28 28 24 20 18 16 15 14 13 13 12 10 7 5 2 3 6 8 10 12 14 16 19 21 23 24 25 26 27 30 32 36
23 23 23 23 23 24 25 27 27 24 20 18 16 14 14 13 12 11 8 5 2 1 5 7 9 10 12 12 13 14 15 15 15 16 18 19 21 25
24 24 24 24 23 23 23 24 26 27 24 20 18 16 15 16 15 13 12 10 8 7 7 8 9 10 11 11 12 12 12 13 12 12 13 14 16 16
26 25 25 25 24 24 23 23 24 25 27 25 20 19 16 16 19 18 16 15 14 13 13 13 13 14 14 14 14 13 14 14 14 14 13 13 12 11

GFSNE_500_spd_039.txt.gz
Wind_Speed
94 95 87 78 69 58 52 51 51 49 47 49 51 50 50 49 48 49 48 48 48 49 49 49 50 49 55 66 81 96 106 108 106 102 98 97 95 95
92 83 74 65 54 48 47 48 50 52 53 49 45 47 46 45 45 44 45 45 46 48 51 50 50 49 47 52 62 76 88 100 103 101 98 97 95 97
80 72 62 53 46 45 46 48 49 52 53 45 44 44 43 42 42 43 43 44 42 44 48 50 51 50 50 48 52 61 71 84 97 98 97 96 98 94
70 60 50 43 42 45 47 48 50 51 50 47 40 40 39 41 42 43 46 49 48 47 49 48 48 49 52 50 48 54 61 68 84 94 95 93 92 91
58 49 42 40 42 45 46 49 50 49 47 46 38 36 39 42 44 48 51 53 52 50 49 49 48 48 50 53 50 52 56 60 69 84 90 91 89 87
49 42 39 40 42 44 47 49 49 46 43 41 36 36 41 44 49 52 53 52 50 47 45 47 48 46 44 53 54 52 53 54 59 72 82 87 87 91
43 39 39 40 41 45 48 48 46 44 38 37 34 38 43 48 51 52 49 44 40 37 36 39 44 45 44 47 55 52 51 51 53 63 75 78 80 76
39 37 38 41 44 45 45 44 44 39 35 34 35 40 44 48 49 46 40 37 32 30 30 32 37 41 44 46 53 55 51 51 50 54 71 75 77 76
37 36 39 42 43 44 42 42 39 36 34 31 35 39 42 44 44 36 34 31 27 26 27 28 34 37 41 44 47 54 52 50 48 49 62 80 78 73
35 36 38 41 41 41 40 39 35 34 31 31 34 38 41 40 36 31 27 23 20 21 24 26 32 34 37 39 42 51 54 50 47 45 54 75 88 83
33 34 36 39 39 39 37 35 32 33 29 29 31 35 37 35 31 25 22 17 16 15 17 18 22 28 34 35 38 46 53 50 46 43 46 58 81 87
32 34 34 34 36 36 34 31 28 30 26 26 29 32 34 31 27 21 17 15 13 12 13 12 14 18 22 29 37 44 51 49 46 42 43 49 73 80
31 32 32 32 34 33 32 29 27 26 24 24 27 29 30 28 25 19 15 12 10 9 8 8 11 13 17 25 31 38 45 48 46 43 42 43 63 79
30 29 29 29 31 31 30 28 26 25 24 22 24 26 27 27 22 19 14 11 9 7 6 6 7 10 15 21 27 34 39 43 45 44 43 42 47 68
29 27 27 27 29 31 29 28 26 25 24 21 21 23 25 25 23 18 15 11 8 8 8 8 8 7 12 19 26 31 34 38 41 42 42 41 42 50
27 26 26 26 27 29 29 27 25 23 23 22 19 21 22 23 23 20 15 11 9 6 6 5 7 10 13 17 22 26 30 33 37 39 40 40 41 43
26 25 25 25 26 28 29 29 27 23 22 21 19 18 20 21 21 20 17 12 8 7 4 2 3 6 9 13 18 23 26 28 32 35 36 36 37 38
25 25 25 25 25 26 28 29 29 26 22 21 20 17 17 18 19 18 17 14 9 5 3 1 3 6 8 12 16 19 23 25 28 30 33 32 35 36
24 25 25 25 25 26 26 27 28 28 26 21 20 19 17 16 16 17 15 14 10 6 3 3 3 5 9 13 16 18 21 24 26 26 29 32 32 35
26 25 25 25 26 26 25 25 26 27 27 25 20 18 17 16 15 14 14 12 10 7 3 3 5 7 9 9 13 16 19 22 24 24 25 27 29 31
27 27 26 26 26 26 26 25 25 25 25 26 25 21 18 17 16 14 13 12 10 8 5 2 4 7 10 13 15 17 20 22 24 26 28 29 30 31
27 27 27 27 26 25 26 25 24 23 24 24 25 24 20 17 17 16 15 12 11 9 7 4 4 5 7 9 11 14 17 19 20 22 23 25 27 28
28 27 27 27 27 26 25 25 24 23 24 24 24 25 24 20 17 17 17 17 14 12 11 10 8 7 8 9 10 12 13 14 15 15 15 15 15 16

GFSNE_500_spd_042.txt.gz
Wind_Speed
87 86 91 93 84 76 69 62 56 50 44 43 45 48 50 51 50 48 46 46 46 46 47 49 50 50 52 53 53 60 73 86 102 109 108 106 102 99
84 89 91 81 75 68 58 51 47 48 48 47 46 49 51 47 46 46 45 44 44 44 45 47 51 51 50 52 52 54 57 66 81 98 105 106 105 102
88 92 83 74 67 57 49 44 44 48 50 47 48 48 48 48 45 44 43 43 43 41 41 43 46 47 49 51 54 54 53 54 63 79 92 102 105 103
93 88 74 66 56 48 43 42 45 48 51 51 48 45 46 44 43 41 41 43 43 43 46 48 49 49 48 47 50 55 56 54 55 65 78 91 101 101
97 79 68 56 47 41 40 42 45 48 50 51 45 44 42 40 39 39 41 43 48 50 51 52 52 52 50 49 47 51 56 55 51 57 66 80 91 98
88 70 57 47 41 39 40 43 47 48 48 46 44 39 38 36 36 39 42 47 51 52 51 48 48 49 48 49 48 48 52 55 54 50 57 70 83 91
72 61 47 42 38 38 41 43 47 46 45 43 40 37 34 34 37 41 46 48 47 44 42 37 39 40 43 45 47 46 47 52 54 49 50 61 75 85
65 50 42 39 37 38 40 42 42 43 41 39 35 34 32 35 39 43 45 45 37 38 37 29 32 31 34 38 42 45 45 48 51 48 44 53 67 79
54 42 38 36 35 38 41 41 42 41 40 36 34 32 31 35 38 40 41 38 33 32 31 24 28 25 28 32 36 39 40 41 48 49 42 46 58 74
45 38 34 34 34 37 38 39 39 40 37 35 34 30 31 34 37 37 36 30 28 27 26 19 21 21 25 26 30 33 35 39 44 47 41 41 50 65
39 35 32 32 35 36 37 38 37 37 35 32 32 27 29 32 34 33 32 26 23 23 22 15 16 15 17 24 28 30 34 38 39 45 40 39 44 54
36 32 29 31 33 34 33 35 34 33 31 28 29 25 27 30 31 30 29 24 20 18 17 13 13 11 11 16 24 28 31 35 37 42 38 38 41 50
32 30 29 29 30 32 32 34 34 31 29 26 26 23 25 27 28 28 26 23 19 16 14 13 12 9 7 9 14 24 28 31 34 41 38 37 40 51
30 28 28 29 29 30 30 33 33 32 30 27 26 23 22 24 26 25 23 22 20 16 13 12 10 7 4 6 10 15 23 28 35 39 37 36 38 46
28 27 27 27 27 28 29 30 32 33 32 27 24 23 20 22 23 23 22 18 17 16 12 10 9 5 1 6 10 15 21 27 34 39 38 37 37 41
27 25 25 25 26 26 27 28 30 31 31 29 24 23 20 19 21 22 22 19 16 15 12 8 6 4 3 5 9 13 17 24 32 37 38 38 38 40
27 25 25 25 25 25 26 26 28 30 30 30 26 22 21 18 18 20 20 19 15 12 10 7 5 2 1 6 10 13 17 23 28 34 37 38 38 39
26 24 25 25 24 24 25 25 26 27 29 29 28 24 20 19 16 17 17 17 16 13 10 7 5 2 3 7 11 14 16 20 25 29 34 37 38 39
27 26 25 25 25 25 25 25 25 26 27 27 27 27 22 18 17 14 15 14 14 14 11 6 3 1 3 7 12 16 19 20 23 26 30 33 35 36
27 26 27 27 26 26 26 25 26 25 25 25 25 25 25 21 18 15 13 13 12 11 11 9 5 3 3 6 10 13 15 19 22 26 29 31 33 33
30 28 28 27 27 27 27 26 26 25 25 23 24 24 24 24 20 16 14 12 11 10 9 8 8 5 4 8 9 12 15 18 21 24 25 27 29 31
29 29 28 28 27 26 26 27 26 25 25 23 23 24 23 23 23 19 15 13 12 10 9 7 6 6 3 6 10 13 14 17 21 23 24 25 27 29
30 30 29 27 27 26 26 26 26 26 25 24 22 22 23 22 22 21 18 14 13 12 11 9 7 5 5 4 6 9 14 17 19 21 24 25 27 29

GFSNE_500_spd_045.txt.gz
Wind_Speed
81 83 80 81 88 91 84 77 71 64 54 45 39 40 43 45 45 48 49 48 46 43 44 45 46 46 47 48 51 55 58 62 66 79 95 104 108 108
83 78 80 87 89 82 72 66 60 56 48 41 38 41 43 44 46 48 48 44 43 43 42 42 44 46 48 50 50 51 54 58 62 64 75 89 102 107
82 81 85 87 85 74 66 58 51 48 43 39 40 43 45 46 45 43 43 41 40 40 40 41 43 46 47 48 50 52 54 56 58 61 62 71 84 99
83 84 90 90 72 63 58 48 45 43 43 42 42 44 45 43 43 42 39 38 38 37 39 42 44 47 49 51 51 51 51 55 60 59 59 61 68 81
83 87 89 85 68 54 48 44 41 41 43 44 42 41 41 41 40 38 37 35 35 37 41 44 47 49 52 53 53 54 53 53 56 60 59 57 60 70
86 87 85 71 58 47 42 39 38 39 42 42 41 41 40 39 37 36 32 34 35 40 44 46 47 48 49 52 52 53 53 53 53 56 59 58 56 63
82 77 67 62 49 43 38 36 36 38 38 39 39 39 37 33 34 31 31 33 38 42 42 40 41 44 44 44 45 47 51 52 53 54 55 58 55 57
69 61 56 51 43 39 34 34 36 36 35 37 36 36 32 32 30 29 31 35 36 41 37 30 36 37 36 35 37 40 44 48 52 51 51 55 54 53
57 55 49 42 39 34 32 33 35 36 38 37 36 34 30 31 27 29 33 36 36 34 28 25 31 29 28 27 29 32 36 42 47 49 48 52 54 51
52 49 43 37 35 30 30 31 33 35 37 37 35 32 30 29 27 29 32 33 33 32 25 21 27 24 23 23 24 26 30 33 38 43 44 47 49 47
46 44 39 33 31 28 29 29 31 33 36 35 33 31 28 27 26 28 32 33 29 29 23 19 21 18 17 17 19 22 24 29 34 37 39 42 45 43
43 39 34 31 28 27 27 27 29 31 32 32 32 30 27 26 25 27 30 31 28 26 22 19 18 14 13 13 15 17 22 25 29 31 33 37 41 38
38 35 32 28 27 26 26 26 27 29 30 30 30 27 26 25 23 26 28 29 26 23 20 18 16 14 9 10 7 10 18 22 25 29 30 36 37 35
34 32 29 26 25 24 24 26 26 28 30 31 31 28 24 25 22 23 26 27 26 21 18 16 15 11 9 6 4 6 13 19 24 28 32 36 35 35
32 28 26 25 24 23 23 24 25 27 28 30 31 30 25 23 21 21 23 24 24 21 19 16 12 10 6 5 6 9 12 18 22 26 34 36 35 34
30 28 26 25 23 22 23 23 24 25 27 28 29 30 28 22 21 18 20 22 23 20 17 15 12 7 4 4 7 7 10 17 23 30 36 34 33 34
25 26 26 25 24 23 23 23 24 25 25 26 27 28 28 25 20 18 16 19 20 19 15 13 11 7 2 3 6 8 11 15 23 31 34 34 33 35
24 24 23 23 24 24 24 24 24 24 25 25 25 26 26 26 21 18 15 15 17 16 14 11 10 7 3 1 6 10 12 14 20 29 32 33 33 33
27 26 25 24 24 23 24 24 25 25 25 24 23 24 24 25 24 19 16 13 14 14 13 12 10 8 3 1 5 10 13 17 21 27 32 33 33 33
27 27 27 27 26 25 25 24 25 25 25 24 23 22 22 22 23 23 17 14 12 12 12 11 9 6 4 2 4 7 11 16 19 23 28 33 35 35
27 26 27 26 25 25 26 25 24 25 25 24 22 21 21 21 21 21 20 15 12 10 10 9 8 6 3 3 3 7 11 14 18 22 25 30 33 35
28 26 25 26 26 25 25 25 24 24 24 24 23 22 21 20 20 20 19 19 14 11 10 8 7 5 3 1 5 7 10 14 16 19 24 27 30 33
29 29 27 26 25 23 23 24 24 24 24 24 23 22 21 20 19 18 18 18 17 13 11 10 8 6 5 2 3 6 9 12 15 19 21 24 27 30

GFSNE_500_spd_048.txt.gz
Wind_Speed
73 76 80 84 85 86 85 82 85 84 82 74 63 55 49 45 43 44 45 47 49 50 49 50 49 49 49 49 49 51 53 56 58 65 69 84 100 110
79 81 86 86 84 84 81 83 82 78 69 60 50 44 42 41 43 45 46 47 47 48 46 45 46 44 45 45 46 48 50 53 56 60 62 63 80 93
82 87 87 81 79 76 77 77 75 68 61 50 41 41 40 41 42 43 43 43 42 43 42 40 41 41 43 44 46 49 51 53 54 57 61 61 64 75
86 81 79 78 76 75 70 69 66 59 52 45 39 39 40 41 40 41 42 42 41 41 40 39 39 40 42 45 47 49 50 52 55 57 58 60 61 65
80 78 79 78 75 71 66 63 57 52 45 41 38 40 39 39 38 39 39 38 37 38 37 37 39 39 42 46 48 50 51 52 53 55 57 61 62 62
78 79 81 79 68 61 60 56 49 43 39 38 37 38 40 40 40 38 33 36 35 34 34 36 39 43 45 47 47 49 51 52 54 55 56 58 63 62
83 81 72 65 60 58 54 48 44 39 36 35 34 36 36 36 36 33 32 30 31 31 32 39 39 40 41 42 42 45 48 52 54 56 58 58 59 62
76 68 59 57 55 54 47 41 39 36 34 33 32 33 33 34 32 30 30 27 28 34 33 37 35 35 37 37 41 44 47 49 52 53 56 57 57 59
61 57 57 55 53 49 41 37 35 34 33 31 31 34 33 34 30 29 28 27 30 33 31 30 34 34 34 34 38 41 37 38 42 45 49 53 55 55
57 55 54 52 46 42 37 34 32 31 31 32 33 34 33 31 29 28 26 27 30 33 33 27 32 31 31 31 34 33 29 30 32 35 39 45 51 51
54 52 51 47 42 38 34 31 29 29 29 30 32 33 32 30 27 26 25 25 29 32 35 29 30 27 27 29 30 27 24 24 25 28 31 39 44 46
50 48 46 40 38 35 31 29 27 27 27 30 31 32 32 31 28 26 24 25 28 31 34 27 29 25 22 27 25 21 18 19 20 24 28 34 38 39
47 45 41 37 35 31 29 27 26 25 26 27 29 30 30 30 28 26 25 23 27 29 30 28 24 22 20 20 20 16 13 14 16 19 24 27 31 33
44 42 37 34 32 29 28 26 26 24 25 25 27 29 30 30 30 26 24 24 24 26 28 25 23 20 17 15 14 13 9 7 14 18 21 24 27 30
42 39 35 32 30 28 27 25 25 24 24 25 26 28 29 29 30 27 24 22 23 24 26 23 20 17 15 13 11 10 8 5 13 17 23 25 28 33
41 36 33 31 28 26 26 25 25 24 24 24 25 27 28 28 29 27 24 22 22 22 22 23 19 16 13 11 8 6 2 5 12 19 23 23 29 31
39 35 32 30 28 25 24 25 24 25 24 24 25 26 26 26 27 28 24 22 19 22 21 21 18 16 12 8 6 4 4 7 13 19 22 26 29 31
36 34 34 30 29 27 26 25 23 24 25 25 25 25 24 24 25 26 26 20 18 18 20 19 18 14 10 6 4 3 5 8 10 15 21 27 30 30
34 34 33 31 30 29 28 26 25 25 24 25 25 24 24 22 23 23 24 23 17 15 17 15 15 12 9 6 4 3 6 9 13 16 23 27 29 30
33 32 32 31 28 27 27 25 25 26 25 24 24 23 23 22 22 21 21 22 19 15 14 14 12 11 8 5 3 4 7 9 14 20 25 27 28 28
33 31 31 30 29 25 25 25 25 25 24 24 24 23 22 21 21 20 20 20 20 16 12 12 11 9 6 5 4 4 6 8 12 20 26 27 28 28
32 31 30 29 27 25 25 25 24 22 22 23 23 22 21 20 20 19 19 19 18 17 14 11 10 9 7 4 6 6 6 8 11 15 21 27 29 31
32 31 30 28 26 26 25 25 23 22 23 23 22 20 19 19 18 18 18 17 17 17 15 12 10 9 8 3 5 6 6 8 10 13 16 20 25 29

GFSNE_500_spd_051.txt.gz
Wind_Speed
70 73 77 81 84 88 90 89 83 79 77 82 84 77 75 76 73 65 56 52 49 49 50 50 50 49 48 47 47 48 50 51 52 56 61 68 70 82
75 80 83 86 87 88 84 81 81 82 85 83 72 71 71 65 59 55 49 47 47 48 49 48 47 46 45 45 45 46 47 48 49 51 52 56 60 65
81 83 85 87 88 85 78 81 85 86 81 70 69 68 59 53 50 47 46 44 42 43 45 45 44 43 43 42 42 42 43 44 46 47 49 53 56 57
87 87 91 89 82 79 81 85 77 70 70 69 63 56 52 47 45 43 42 42 42 44 45 44 42 41 40 40 41 42 43 44 46 47 48 50 54 57
91 92 83 78 78 85 83 74 67 67 67 62 54 50 45 44 42 39 40 39 41 42 39 37 38 37 36 37 40 42 44 46 48 50 52 53 54 58
93 86 81 84 87 77 70 65 64 63 60 54 48 43 41 41 41 40 37 38 38 38 35 34 34 34 36 37 40 44 46 47 49 50 52 54 56 59
84 87 86 77 66 64 64 62 60 57 53 47 41 38 38 39 39 38 36 33 33 37 29 33 32 34 37 39 39 40 42 43 46 47 48 50 53 56
81 73 70 67 63 62 60 58 57 52 46 41 36 37 36 36 36 35 34 33 30 35 27 34 32 35 36 35 34 35 37 39 42 45 48 51 53 53
69 65 69 65 59 58 56 55 51 46 41 37 34 36 34 33 33 33 33 31 31 30 24 31 32 37 37 33 32 34 36 39 41 44 49 53 56 58
66 69 69 59 56 54 52 50 45 42 38 35 34 33 33 32 34 32 30 29 31 31 25 29 32 34 32 33 32 33 33 34 40 43 42 44 50 57
69 71 65 56 53 50 49 45 41 39 35 33 33 32 32 33 32 30 28 27 27 29 27 27 34 32 29 32 32 30 29 34 37 34 32 32 36 43
71 69 60 51 49 47 45 40 37 35 32 32 32 31 31 32 32 32 29 25 26 26 29 29 33 34 27 29 33 26 28 32 28 26 25 26 30 34
70 64 55 49 46 45 42 37 35 33 31 30 30 30 30 30 31 33 32 28 24 26 27 28 30 30 29 27 27 24 24 23 19 18 17 19 21 24
68 58 51 47 44 43 40 35 33 31 30 29 29 29 28 28 29 32 32 32 26 24 26 28 28 28 26 24 21 20 17 17 11 12 11 12 16 19
64 53 48 45 43 41 38 33 32 31 30 29 29 28 27 26 27 30 32 31 27 23 24 26 26 26 25 21 17 15 11 8 7 8 8 11 15 19
59 50 45 44 41 39 36 32 30 28 29 29 29 28 27 26 26 27 29 29 29 26 21 24 25 23 20 19 15 11 6 5 6 8 9 13 15 16
55 47 43 42 40 37 35 32 30 29 28 28 27 27 27 26 26 26 26 28 28 25 24 20 21 22 18 15 12 7 5 6 4 6 10 12 14 20
50 43 40 39 37 35 33 33 32 31 30 29 27 26 26 26 26 25 24 25 25 26 23 20 21 19 16 13 9 5 4 5 4 4 9 13 21 27
45 40 38 37 36 33 32 32 33 33 30 29 28 27 25 25 24 24 23 23 25 24 22 20 18 18 16 11 7 4 7 5 5 6 10 16 23 29
41 38 35 34 33 32 31 30 31 31 28 27 27 26 24 24 24 23 22 21 22 21 23 19 16 16 15 13 9 5 6 6 4 9 13 17 23 28
37 35 33 31 31 32 30 29 29 28 27 26 25 23 21 22 22 22 21 19 19 19 19 19 16 14 13 13 11 8 6 4 5 10 14 17 21 25
35 33 32 31 30 30 29 27 27 26 25 25 23 22 21 21 20 20 19 18 17 17 17 18 16 14 12 10 11 9 7 5 7 11 16 18 20 23
34 31 31 31 30 29 28 27 26 25 25 24 22 21 20 19 18 18 18 17 16 17 16 16 17 14 12 10 11 11 8 5 7 12 16 20 22 23

GFSNE_500_spd_054.txt.gz
Wind_Speed
75 74 76 80 84 87 90 92 93 95 91 82 76 82 86 81 77 77 75 69 64 60 56 53 50 46 45 45 45 45 43 43 45 48 51 54 58 63
75 78 81 83 86 89 91 94 92 88 86 88 86 79 75 74 72 68 62 56 52 50 48 48 47 44 43 44 44 44 42 42 42 43 46 47 49 54
79 83 88 88 94 92 92 90 88 87 81 74 71 70 67 66 62 57 54 50 48 45 43 42 42 43 44 45 45 45 44 43 42 42 43 46 47 50
83 85 86 89 91 89 86 84 81 77 72 68 67 63 60 58 54 50 47 46 43 40 39 39 40 42 43 41 40 40 41 42 42 41 40 42 46 49
84 85 85 86 85 83 81 74 71 71 68 64 60 56 53 50 45 44 43 41 40 38 39 38 38 37 37 37 35 35 36 38 39 41 41 42 44 47
82 83 83 83 81 76 71 71 71 66 63 59 55 51 48 43 42 41 38 40 40 41 40 37 36 35 34 32 32 34 36 37 37 39 41 43 46 48
82 82 82 80 75 71 70 71 67 61 58 54 51 47 42 39 38 38 38 38 38 40 37 34 36 33 31 31 33 35 39 40 40 40 41 42 46 50
82 82 79 72 69 69 70 69 61 57 53 50 47 43 38 36 35 35 37 38 36 36 35 32 34 29 29 32 35 37 36 35 34 36 38 40 43 47
82 78 72 69 68 69 69 65 57 53 49 48 44 40 35 34 33 32 34 36 39 38 32 26 32 29 31 34 36 34 31 32 33 35 36 39 42 45
77 72 68 67 68 69 68 58 53 49 46 45 40 37 33 32 31 31 31 33 36 37 33 22 31 28 31 34 35 31 30 31 32 35 38 41 44 48
72 70 69 67 69 70 64 54 50 47 43 42 38 35 32 30 30 30 31 32 31 34 35 26 28 25 30 33 32 29 26 29 31 31 34 40 44 48
71 69 70 68 70 69 59 50 47 45 41 39 36 34 30 29 29 30 30 30 30 29 32 28 29 26 26 30 31 31 26 27 25 29 33 35 34 34
70 69 70 71 71 65 55 47 45 42 39 37 34 33 30 29 29 30 31 31 30 31 33 28 26 27 30 28 27 30 27 23 23 24 22 20 20 22
69 69 70 71 69 59 50 45 43 39 37 35 32 31 29 29 29 29 31 31 32 29 31 30 24 25 27 28 27 25 22 18 17 14 13 13 13 10
72 72 72 69 62 53 47 43 41 36 34 32 30 29 28 29 29 28 30 30 31 31 29 28 24 25 26 27 23 19 17 15 11 11 11 8 4 3
77 73 68 62 53 47 43 41 39 34 32 30 29 28 27 28 28 27 27 28 28 32 31 27 24 23 25 26 23 16 12 11 11 7 8 4 2 7
73 67 57 54 46 43 41 39 37 33 31 30 27 28 28 28 27 27 26 26 26 25 29 30 22 21 23 23 19 14 10 8 7 4 4 2 6 10
60 55 53 50 43 41 40 37 35 32 31 30 27 28 28 28 27 26 25 25 24 24 26 26 22 18 20 21 17 12 11 9 5 2 2 6 11 18
48 49 48 46 41 38 37 35 32 31 30 28 28 27 26 26 26 25 24 24 23 22 23 23 21 18 18 19 16 14 10 6 3 3 6 8 17 25
39 40 41 40 38 36 34 33 31 29 28 27 27 26 25 25 23 23 22 21 21 20 20 21 20 18 16 17 16 13 10 7 3 5 9 12 20 27
35 34 34 36 34 34 32 31 29 27 27 25 25 24 23 22 21 21 21 19 19 18 18 19 18 17 16 15 15 15 11 6 3 5 10 15 22 27
34 31 33 35 33 31 30 29 27 26 25 24 23 22 21 20 21 21 19 17 16 16 16 17 17 16 16 15 15 14 12 8 3 6 10 14 19 24
33 31 32 31 28 27 28 27 27 25 24 23 23 22 21 20 19 18 17 16 15 15 15 15 16 15 15 14 14 13 11 8 4 6 12 14 16 20

GFSNE_500_spd_057.txt.gz
Wind_Speed
72 75 76 78 79 82 87 87 86 86 86 88 88 87 85 80 76 73 70 65 60 58 55 53 52 51 50 48 45 43 43 43 44 46 47 49 52 56
74 74 77 79 81 84 87 86 87 87 87 85 82 79 77 74 70 65 58 54 51 49 46 45 45 45 45 43 41 38 37 38 41 42 43 45 47 49
75 77 81 81 84 85 85 86 87 87 84 77 75 73 73 68 61 55 52 48 45 42 42 41 41 41 39 37 36 36 38 41 42 43 43 43 44 47
78 81 81 81 82 85 85 86 85 81 77 73 71 72 66 60 54 50 47 44 41 41 40 38 36 33 32 33 34 35 37 38 39 40 41 43 44 44
81 79 81 82 83 85 86 84 80 75 71 72 70 68 60 54 49 46 42 39 39 41 39 36 33 30 31 33 33 33 34 34 36 37 38 39 42 44
80 80 81 83 85 85 85 79 75 70 68 70 71 62 55 49 46 41 37 37 37 41 40 38 33 32 30 30 31 32 32 33 35 36 37 37 40 43
80 81 83 85 85 83 80 75 70 68 67 69 68 57 51 46 43 38 35 34 36 39 39 38 35 30 27 29 31 32 33 33 36 37 39 41 41 43
81 83 85 86 84 81 76 71 68 67 67 69 63 52 48 44 39 36 33 33 34 36 34 34 34 32 28 29 31 32 32 34 37 38 37 37 39 42
83 86 87 86 82 78 73 68 66 65 67 68 57 50 45 42 37 34 33 32 33 35 33 30 32 32 30 32 32 31 32 35 37 36 34 34 35 38
86 88 88 84 80 76 70 66 66 66 67 65 53 47 43 39 35 33 31 30 31 33 33 31 30 28 30 32 31 31 32 34 34 33 33 33 36 38
88 89 87 81 76 72 67 66 66 68 67 60 49 43 40 36 33 31 30 29 29 30 32 33 32 24 27 31 31 31 32 31 29 29 31 35 38 41
90 88 81 76 72 71 71 70 69 68 64 55 45 41 37 33 31 30 29 28 28 27 31 30 32 27 20 28 29 31 31 29 28 28 28 30 34 37
92 85 78 76 78 77 75 71 67 63 56 48 41 38 35 31 29 29 29 28 28 28 30 29 31 29 25 21 29 31 31 27 27 25 26 28 29 28
87 80 77 78 77 73 70 65 60 56 50 42 37 36 33 29 27 27 28 28 29 28 28 28 29 30 25 23 25 28 29 24 21 22 20 18 17 16
85 81 77 73 72 68 62 57 54 46 43 37 34 34 32 27 27 26 27 27 28 28 27 25 27 30 26 22 24 26 24 20 17 15 13 9 7 2
79 77 73 65 58 57 51 44 44 41 40 35 32 32 30 28 26 26 27 27 27 28 28 24 24 27 27 21 22 24 20 16 14 9 6 3 1 8
70 63 53 51 51 46 42 44 46 41 40 35 30 30 28 27 27 26 26 26 26 25 26 27 25 24 26 21 22 22 18 12 10 6 2 2 6 7
59 49 46 46 43 39 42 41 41 41 37 32 29 28 26 26 25 25 24 24 24 23 22 22 22 24 23 19 18 19 16 8 6 5 4 6 9 14
49 47 43 43 39 37 38 38 37 34 31 28 27 26 25 23 23 23 23 23 22 21 20 19 19 20 22 17 15 15 14 9 7 6 7 8 14 18
49 45 44 43 38 34 33 33 32 29 27 26 25 25 23 21 22 22 22 21 21 20 18 16 16 18 19 18 14 14 12 9 7 7 8 11 16 23
47 46 45 42 37 35 34 30 29 28 26 25 25 24 21 20 20 21 20 20 20 19 17 16 14 16 17 17 14 12 10 8 8 8 9 12 18 26
47 46 44 38 37 36 34 30 29 27 25 25 24 23 20 19 20 20 18 18 18 17 16 15 14 14 15 16 15 11 10 8 6 7 9 12 17 25
45 44 42 36 36 34 32 29 27 25 24 24 23 22 20 20 20 19 17 16 15 15 15 14 15 13 13 14 15 13 9 8 7 6 9 12 16 21

GFSNE_500_spd_060.txt.gz
Wind_Speed
74 69 68 71 76 74 78 83 82 82 83 85 89 92 92 92 89 81 73 70 65 60 54 51 50 49 49 49 49 49 50 52 54 56 59 62 65 68
72 71 77 84 79 77 85 84 84 85 85 87 89 91 88 81 77 73 70 66 59 51 48 46 44 43 43 44 43 42 41 40 40 42 45 46 47 50
64 70 80 76 75 81 85 84 84 86 88 88 90 87 84 73 69 70 68 60 53 48 45 41 40 38 39 39 39 38 38 37 36 36 37 40 41 44
78 78 77 77 78 88 84 85 86 88 90 90 85 80 74 69 67 68 64 57 51 46 41 39 37 35 34 34 35 34 34 33 33 34 36 38 41 43
72 77 80 80 87 89 86 85 88 90 90 88 81 74 68 66 66 66 60 53 48 44 40 37 35 34 32 32 31 30 30 31 32 33 34 35 37 39
74 79 81 86 90 87 87 88 90 89 86 82 76 69 65 64 65 65 55 50 46 42 39 35 35 36 31 29 29 28 29 29 29 29 31 33 35 37
77 80 85 85 85 86 88 89 91 88 82 76 70 65 63 64 65 63 52 47 42 40 37 34 36 36 33 26 25 27 28 28 28 30 32 33 34 35
79 81 82 83 85 87 89 90 89 82 77 71 67 65 64 65 64 58 49 44 39 38 35 31 35 34 34 31 27 26 26 26 27 31 33 35 36 37
79 81 83 85 88 89 91 91 86 78 71 70 70 68 66 65 61 54 46 41 37 34 34 30 34 32 33 33 29 27 26 26 27 31 33 36 38 37
79 82 84 86 90 93 92 91 82 76 73 72 70 66 63 59 55 48 42 38 34 33 33 29 33 31 32 33 31 28 26 25 27 31 34 35 34 33
81 83 85 88 92 93 89 84 79 76 76 72 67 61 56 52 48 43 38 35 32 31 32 30 31 32 30 35 31 27 24 24 26 31 32 31 31 32
81 84 89 92 91 87 85 82 78 71 71 68 61 52 50 46 42 38 36 33 31 29 31 29 31 32 28 30 33 27 23 24 25 29 27 28 29 30
86 89 92 92 88 81 79 76 71 65 64 60 51 45 43 41 37 33 32 30 29 27 29 29 29 30 30 27 29 27 24 24 26 26 24 24 27 30
90 91 90 85 79 74 73 68 60 55 52 47 40 34 37 35 33 31 30 28 27 26 26 27 27 29 28 26 26 24 22 23 22 22 21 22 23 21
91 89 84 77 72 70 65 55 47 49 45 39 43 42 41 35 32 30 28 28 27 27 25 26 26 27 28 26 23 21 20 22 19 18 18 15 13 8
89 84 77 71 67 62 51 47 46 45 43 39 39 40 38 36 31 30 27 28 27 27 26 26 25 24 25 25 21 19 18 18 15 13 15 11 9 10
85 78 72 67 58 51 48 43 43 44 39 36 37 38 37 32 28 28 27 28 26 26 26 26 24 22 22 23 21 17 17 15 15 13 10 10 9 10
78 73 68 59 52 48 44 42 41 41 37 35 36 34 30 28 26 26 27 27 25 24 24 24 24 22 20 19 20 17 15 15 13 13 11 12 11 14
73 67 62 52 48 46 44 42 39 38 36 35 31 27 25 24 24 24 25 25 23 23 22 22 22 20 19 18 17 16 14 14 13 13 12 14 14 19
69 63 56 49 46 44 43 41 37 36 35 34 28 24 23 23 23 23 23 22 21 21 20 20 19 18 17 17 16 15 13 13 13 12 12 15 17 21
63 59 53 48 45 43 42 40 38 36 33 31 25 23 22 22 22 22 21 20 20 20 19 19 17 16 15 15 14 15 12 12 12 12 12 14 18 21
61 57 50 46 43 42 39 38 39 36 32 29 24 23 23 23 22 21 20 19 19 19 18 17 16 15 14 14 13 13 13 12 11 11 11 12 15 19
60 56 49 43 40 39 38 36 36 34 31 27 25 23 23 22 22 21 20 19 19 18 16 15 15 14 14 14 13 13 13 12 11 10 10 10 13 17

GFSNE_500_spd_063.txt.gz
Wind_Speed
54 62 71 75 75 73 74 75 83 79 83 84 87 90 93 94 92 93 93 92 86 75 68 64 61 55 51 51 50 49 49 48 49 51 53 56 59 62
66 79 78 74 75 74 75 77 81 83 84 91 92 91 91 92 93 91 87 83 72 65 61 61 56 51 48 48 46 46 46 46 45 45 45 48 50 54
68 79 81 77 75 73 76 80 84 86 91 89 90 90 91 93 93 92 83 72 65 62 59 58 52 48 46 44 43 43 44 42 40 37 35 37 39 42
77 80 75 72 76 76 82 83 88 88 88 89 88 90 93 91 89 84 72 64 60 61 60 57 50 45 44 41 40 39 38 37 36 35 33 32 32 33
70 71 72 76 79 82 85 84 86 87 89 90 90 92 93 89 83 74 67 64 61 61 58 53 46 42 42 40 37 34 35 34 32 32 31 31 31 32
65 63 70 73 78 80 84 85 86 87 89 91 93 94 91 82 74 72 69 66 63 58 55 50 44 40 39 37 33 34 34 33 31 30 29 29 31 32
65 66 68 70 74 79 82 83 86 88 90 94 94 89 81 75 72 70 70 65 58 54 51 46 42 38 37 35 32 30 30 31 29 29 28 29 31 32
64 65 70 74 79 82 82 81 84 89 92 92 88 82 78 73 70 68 65 59 53 49 47 41 39 36 35 33 34 32 31 28 28 28 29 30 31 31
66 69 73 79 82 83 84 87 88 90 92 88 83 76 75 70 67 63 59 53 47 43 42 38 37 34 34 31 34 33 31 30 28 28 29 31 32 31
67 72 78 82 83 84 87 89 92 93 88 82 78 72 69 65 61 58 53 46 41 38 39 36 34 33 33 31 33 33 32 30 28 28 29 31 31 31
72 77 83 85 85 85 89 90 89 85 76 76 75 71 65 59 53 48 44 42 36 35 35 34 31 32 33 32 33 34 32 30 27 26 27 29 29 30
76 82 85 87 87 89 90 90 88 80 72 69 70 65 55 50 43 40 40 38 35 32 32 31 30 31 30 32 32 33 32 29 25 25 26 26 28 28
81 85 87 87 88 90 89 87 81 74 67 62 58 51 48 46 35 29 33 37 34 31 30 29 27 29 29 28 29 31 30 28 23 24 24 25 25 26
86 88 88 89 90 89 86 81 74 69 59 52 47 46 44 40 39 40 34 32 30 29 28 28 27 28 28 28 27 29 29 26 21 24 23 22 22 22
88 88 89 90 89 85 79 72 67 59 50 47 44 42 35 44 44 36 37 35 30 27 27 26 27 28 28 27 25 27 26 24 20 22 21 19 17 16
89 88 90 89 86 80 72 66 61 51 45 43 41 39 36 36 34 33 35 33 28 26 26 26 26 27 26 26 25 24 25 21 21 20 18 17 15 12
89 90 90 87 81 72 67 61 55 47 43 40 40 36 35 35 36 36 33 29 27 26 25 26 25 25 24 24 23 22 23 20 18 20 17 15 14 14
89 87 84 78 72 68 65 58 51 45 40 39 37 35 33 33 36 32 29 26 25 25 25 26 25 24 22 22 21 21 21 19 18 18 17 15 16 17
86 84 78 72 67 67 63 55 49 46 40 36 35 35 34 33 34 30 26 24 24 24 24 24 23 22 21 20 19 18 19 18 17 17 17 15 17 19
82 78 72 67 66 67 62 53 45 42 40 36 31 35 34 33 30 28 25 24 23 22 22 22 21 21 20 19 18 17 16 18 16 17 17 15 16 20
79 73 68 65 67 67 58 49 43 40 37 34 33 33 32 29 28 26 24 22 22 21 20 20 19 20 18 17 16 16 14 16 16 16 16 15 15 19
75 71 66 67 69 62 52 43 39 37 34 36 39 35 30 26 25 23 23 22 21 20 19 19 19 17 16 16 16 15 14 14 16 15 15 14 13 16
71 66 66 69 66 55 46 40 36 34 35 38 39 32 27 25 23 23 23 22 21 20 19 18 17 16 15 15 14 14 14 14 15 15 15 14 12 13

GFSNE_500_spd_069.txt.gz
Wind_Speed
32 39 49 44 50 58 59 60 56 64 66 67 66 68 70 72 74 78 80 82 84 85 86 87 89 89 85 80 76 69 65 61 58 53 49 46 45 45
42 43 45 50 57 58 60 61 63 64 64 64 67 69 71 74 77 82 84 86 87 88 88 88 86 82 75 70 69 64 59 56 52 48 44 43 43 43
43 44 47 51 56 60 62 63 63 64 66 66 68 70 71 74 80 83 86 88 90 90 88 85 83 74 68 64 64 60 55 51 48 43 41 40 40 39
46 49 52 56 60 62 63 63 64 66 68 68 68 69 74 78 80 84 88 90 93 92 90 86 80 72 64 61 59 54 51 49 44 39 38 37 37 37
50 53 57 60 63 64 64 64 66 69 70 69 70 73 77 81 86 90 91 92 92 88 84 79 72 65 62 57 52 49 46 43 39 37 36 34 33 33
53 57 61 64 64 64 65 68 69 68 70 72 74 76 80 84 90 92 93 92 89 83 78 73 67 62 57 52 48 44 40 38 36 35 33 35 32 32
57 61 64 64 64 64 65 65 66 68 71 74 78 82 84 87 92 92 94 89 84 77 72 67 61 57 52 47 45 41 37 35 34 33 31 32 32 31
62 64 64 65 64 65 65 66 69 71 74 78 82 86 87 90 89 90 88 83 77 71 68 59 55 52 48 45 41 37 35 33 31 30 30 30 30 30
63 63 64 65 66 66 66 67 70 74 78 83 86 88 91 90 89 86 81 75 70 64 60 53 49 47 42 39 36 34 34 31 29 29 29 29 29 29
64 64 64 65 66 67 68 69 72 75 80 85 90 92 91 89 86 82 76 68 64 57 52 48 46 41 36 34 32 31 29 28 28 28 27 28 28 28
64 66 66 67 69 71 72 74 76 79 84 87 91 92 90 88 82 76 67 63 58 48 46 46 43 39 35 31 31 30 28 27 26 27 26 27 27 28
66 67 69 70 71 73 77 79 81 83 86 90 91 89 87 85 77 68 62 57 50 45 43 48 39 35 31 30 29 28 26 25 25 25 25 26 27 26
69 70 70 72 74 76 79 83 86 88 92 95 93 89 85 79 69 60 58 52 46 39 38 42 34 31 33 28 26 28 26 25 25 25 25 26 26 24
71 72 73 75 77 79 82 87 91 94 96 94 90 86 81 70 60 54 52 46 42 38 36 38 33 34 33 31 26 26 26 25 25 25 24 25 24 22
73 75 76 78 81 84 87 91 94 96 94 90 86 81 72 63 56 53 47 40 38 36 32 37 37 38 34 28 24 25 24 26 24 23 22 23 23 20
78 80 81 84 86 88 91 95 96 94 90 86 81 72 64 59 54 51 42 36 35 32 35 35 34 31 27 25 23 24 23 23 24 22 20 23 22 19
83 85 87 88 89 91 94 95 91 87 84 82 75 65 58 55 52 44 34 30 26 30 32 33 34 27 24 23 22 22 22 22 21 21 19 21 23 19
87 87 89 91 92 94 94 91 86 83 80 75 68 61 56 52 45 33 20 21 31 34 38 36 33 25 21 21 21 20 21 19 19 19 17 20 23 18
87 90 92 94 95 95 91 87 82 78 74 67 62 58 55 46 26 27 27 31 36 35 33 33 27 22 19 20 22 19 19 19 18 18 17 18 20 20
91 93 95 95 93 90 86 82 77 73 68 63 56 53 48 41 32 33 35 32 35 34 33 27 22 19 18 19 20 19 16 17 17 16 16 17 16 17
94 95 95 92 89 86 82 78 73 70 65 59 53 46 41 38 37 38 36 34 27 28 27 22 21 17 17 17 18 18 15 16 16 15 15 16 16 15
95 94 92 88 85 82 78 75 71 66 61 54 48 41 34 33 35 37 32 25 28 27 22 19 18 17 16 15 16 16 15 15 15 14 15 15 16 16
92 90 87 84 81 78 75 72 67 61 55 47 41 34 31 30 29 31 28 28 29 24 20 19 17 16 15 15 14 15 14 14 14 14 14 14 15 15

GFSNE_500_spd_075.txt.gz
Wind_Speed
33 37 39 39 39 39 38 38 38 39 42 45 50 54 54 55 56 58 59 62 64 66 69 71 74 76 80 85 90 94 98 101 100 93 90 87 78 68
34 36 38 38 37 39 38 38 40 42 46 50 53 54 55 56 59 61 63 63 65 68 71 74 78 81 84 89 96 98 99 95 95 88 84 77 70 64
36 38 39 40 40 39 40 41 44 48 51 53 55 57 57 58 61 63 63 65 67 70 74 77 80 84 89 93 97 100 95 95 88 82 76 70 64 58
39 41 41 42 43 43 43 44 48 52 54 56 58 57 58 61 62 63 65 67 70 73 76 79 83 88 93 98 98 94 88 86 81 75 71 65 59 52
42 43 44 43 44 45 46 50 52 55 58 60 61 60 61 62 64 65 67 69 73 76 78 82 87 92 97 98 95 87 82 81 73 71 65 61 53 49
44 44 45 46 46 48 50 53 56 58 62 63 63 64 65 66 68 69 70 73 76 78 82 87 92 96 98 93 89 84 77 70 70 66 62 54 50 45
46 46 46 47 49 51 54 57 59 61 64 64 65 67 67 67 69 72 75 75 77 81 86 91 97 100 97 90 86 78 71 68 64 60 54 50 44 41
46 47 50 51 52 54 57 60 63 65 65 68 70 69 69 70 72 75 79 81 82 87 92 94 99 99 92 86 76 71 65 63 59 52 48 45 39 36
49 50 52 53 55 57 60 64 65 67 70 70 70 71 73 75 79 81 82 83 87 91 97 98 98 96 87 78 68 63 61 58 51 45 46 39 35 32
52 53 54 55 58 61 64 65 67 70 71 73 74 75 77 80 83 85 85 88 90 94 99 101 96 91 79 67 60 58 56 51 46 44 42 36 33 29
54 55 57 60 62 64 65 68 70 72 74 76 79 79 81 84 86 87 89 93 94 96 97 99 91 82 68 58 55 54 51 47 42 42 40 35 30 27
57 59 61 63 67 69 70 71 74 76 77 78 80 82 83 85 86 88 92 97 101 100 94 93 82 71 61 53 52 51 46 40 39 41 37 32 28 27
63 63 65 68 70 71 73 76 80 82 81 80 83 85 86 86 88 91 96 100 101 99 91 84 71 63 55 50 49 43 40 42 41 41 35 30 27 28
67 68 68 69 73 76 80 82 85 85 84 84 85 86 87 89 91 94 98 99 97 92 82 74 67 58 49 47 40 37 41 44 41 38 31 28 27 27
64 67 71 77 81 83 86 87 87 87 86 85 85 87 89 92 95 98 97 94 89 81 75 69 60 50 44 39 33 32 33 40 38 33 28 25 25 24
76 79 81 83 86 89 89 89 87 86 85 86 87 90 93 96 98 95 92 85 79 73 70 64 50 42 37 29 22 29 31 34 34 31 23 23 24 23
83 85 87 88 89 89 88 87 86 86 87 89 92 94 97 98 93 90 84 78 74 70 61 51 40 31 26 20 27 33 36 33 32 26 21 22 24 22
87 87 88 89 89 89 87 86 87 89 91 94 96 98 97 93 88 81 77 74 70 59 47 37 27 22 23 26 31 34 36 36 31 23 21 22 23 20
86 87 88 89 88 88 89 90 91 94 96 98 99 96 93 87 81 77 74 69 61 48 35 29 28 28 29 30 36 39 38 38 25 22 23 22 21 19
84 85 86 87 89 90 91 94 96 98 100 98 95 91 86 81 78 75 70 63 48 36 32 32 34 35 34 35 34 38 34 26 21 22 21 20 18 18
83 85 88 90 92 94 96 98 100 99 98 94 89 85 83 79 75 71 64 52 39 32 33 34 31 37 34 33 35 30 23 19 19 20 20 20 17 17
87 90 93 95 97 100 101 101 99 95 90 87 85 83 80 77 72 64 52 40 34 31 32 38 35 31 34 39 35 26 21 18 19 19 20 19 17 17
94 96 98 100 102 102 100 95 91 88 88 86 83 80 75 69 62 49 39 33 30 30 31 37 34 41 28 27 26 22 19 17 18 18 18 17 17 17

GFSNE_500_spd_078.txt.gz
Wind_Speed
39 44 43 40 42 42 42 44 45 44 42 41 42 45 47 50 52 53 56 58 58 59 61 63 64 65 66 69 72 74 76 81 86 92 97 99 97 90
36 45 35 38 41 41 43 44 44 44 44 43 45 47 50 54 55 57 59 59 61 63 64 64 65 67 69 71 74 77 81 85 90 95 97 96 90 84
40 40 36 40 43 44 46 45 44 44 45 47 48 51 53 55 57 59 59 60 63 63 64 65 67 69 71 74 76 79 83 87 93 95 93 87 83 77
36 42 42 44 46 49 47 47 48 49 49 49 51 53 55 57 60 60 61 63 64 65 66 67 68 70 74 76 78 82 86 91 93 92 88 81 76 68
37 39 42 46 47 48 50 50 49 51 52 53 53 55 58 61 60 61 64 64 65 66 67 69 71 74 76 79 82 85 89 93 92 87 82 72 66 63
39 43 46 48 48 50 49 50 52 53 54 55 56 60 63 62 63 64 65 65 66 69 70 73 74 77 79 81 86 89 91 92 89 82 72 65 61 61
43 46 48 49 49 51 52 52 54 55 56 58 62 65 64 65 66 66 67 70 72 74 75 77 79 80 81 85 89 91 94 90 84 73 66 59 59 56
46 47 49 50 51 52 53 55 56 58 61 63 65 66 66 67 69 70 73 74 76 78 78 80 83 83 86 88 92 95 93 86 76 64 58 55 54 49
47 49 50 51 53 55 56 58 60 62 64 65 69 69 69 72 74 77 79 79 79 81 83 82 85 86 89 92 95 94 89 78 67 59 52 51 49 42
49 51 52 53 55 58 60 63 64 65 67 69 71 72 75 79 82 84 83 81 80 82 86 86 87 89 92 95 93 88 79 67 61 53 49 45 41 38
52 53 54 57 59 62 64 67 69 71 70 72 74 79 82 83 85 85 84 84 83 85 86 90 91 94 95 92 86 78 69 62 55 49 43 38 37 35
56 57 59 61 64 67 69 68 68 68 72 77 81 83 84 86 86 86 85 85 86 85 87 92 94 97 94 84 77 70 63 56 50 44 35 33 33 33
60 60 61 63 65 64 65 67 71 76 80 82 83 85 85 85 85 84 85 86 88 89 90 95 95 93 86 79 69 66 55 48 43 35 31 32 35 34
64 64 64 67 69 70 73 75 78 81 84 84 86 86 86 85 84 84 86 87 90 92 92 96 95 85 78 73 67 58 47 41 33 30 31 33 36 34
68 72 74 76 79 82 82 81 82 84 86 87 86 86 85 85 85 86 88 90 91 93 95 91 85 77 73 68 60 47 38 28 29 33 31 31 32 29
76 78 81 83 82 81 82 85 87 86 85 85 85 85 86 87 89 90 92 93 94 92 86 82 78 74 68 59 47 35 27 21 18 22 25 28 30 22
82 81 79 81 83 86 86 85 83 83 84 85 86 88 90 91 92 94 95 96 95 87 79 74 73 67 60 46 31 24 22 18 25 29 31 27 25 21
78 81 84 86 86 84 81 82 83 85 87 89 91 92 93 95 96 96 97 92 86 80 75 72 66 59 45 30 22 20 20 26 31 32 28 30 24 19
82 83 83 80 81 83 84 86 87 90 92 94 96 97 98 99 99 94 89 85 79 75 71 66 58 45 31 21 21 24 25 29 32 33 34 27 22 17
82 81 82 82 84 86 89 91 94 95 97 99 100 101 100 97 93 89 85 80 77 71 64 56 41 28 26 27 30 29 31 33 31 29 24 20 19 17
82 83 85 87 89 92 94 96 98 100 102 102 101 99 95 91 87 85 82 78 73 64 53 40 33 32 32 31 34 33 34 33 28 23 19 19 18 17
86 88 91 93 95 97 100 102 104 104 102 99 95 92 91 90 86 82 77 70 63 54 40 31 30 31 29 30 31 32 33 33 25 20 18 16 15 15
92 95 98 100 102 104 105 105 102 99 97 96 94 92 88 84 80 74 67 58 48 37 29 27 31 33 31 26 27 29 30 22 19 19 17 16 16 14

GFSNE_500_spd_081.txt.gz
Wind_Speed
38 38 40 43 40 43 46 47 45 44 42 43 49 50 50 50 51 50 51 52 53 55 58 61 59 61 63 64 66 68 69 70 72 74 76 77 81 85
46 49 34 38 42 43 48 43 46 44 43 47 50 51 51 52 53 52 54 55 57 60 63 61 62 64 66 68 69 70 72 73 74 77 79 81 84 88
38 50 48 46 50 48 46 41 43 50 49 53 53 53 52 53 54 56 57 59 61 64 65 64 64 65 67 69 70 73 75 76 77 78 79 83 86 88
27 35 40 47 44 39 45 46 50 57 57 55 55 54 54 56 56 57 60 61 65 67 66 66 66 67 69 72 74 76 77 79 80 80 81 86 87 86
32 31 35 40 42 43 48 50 54 58 57 57 56 56 57 59 60 61 64 65 69 70 68 67 68 72 73 74 77 78 79 80 81 82 84 86 88 82
35 35 37 41 41 44 47 52 56 58 58 57 57 58 59 61 62 65 65 68 71 70 71 73 75 76 77 79 79 78 80 81 82 84 86 88 82 73
38 38 41 42 44 48 52 56 58 58 58 59 59 60 62 65 66 67 70 72 72 73 74 76 78 79 80 80 79 80 81 82 83 86 88 83 74 64
41 44 46 46 50 51 52 54 55 56 58 59 60 62 65 66 68 70 73 72 73 76 80 78 81 80 81 80 79 80 81 83 85 87 84 77 67 60
44 46 48 51 51 52 52 53 54 56 58 61 63 65 67 68 70 71 71 74 78 81 83 82 83 82 82 80 80 82 84 85 87 85 79 71 64 58
47 49 51 51 52 53 53 54 55 57 61 64 64 63 65 68 70 72 78 81 81 83 84 84 84 82 82 82 83 86 86 88 88 82 74 66 59 52
49 50 52 53 54 55 56 58 58 59 61 64 68 71 73 76 77 79 81 82 83 84 85 85 84 83 82 83 84 87 90 89 85 77 68 60 52 45
51 53 55 56 57 59 60 62 65 70 74 77 77 77 79 81 82 83 84 84 84 84 84 84 85 87 85 85 87 88 90 85 76 67 59 52 44 38
56 58 60 61 62 64 66 70 74 77 80 82 85 84 84 85 86 86 86 85 84 83 85 87 86 86 89 89 86 87 82 75 65 59 52 44 35 32
62 63 65 68 70 72 73 77 82 84 84 84 84 86 89 91 89 87 85 85 85 85 85 88 87 88 88 88 84 76 70 64 58 49 42 34 29 28
68 67 69 71 74 73 75 84 84 83 84 86 88 90 91 89 87 86 86 86 86 86 86 87 88 88 88 81 74 68 62 58 49 39 31 26 26 27
68 71 75 76 79 84 86 83 85 87 88 88 89 89 88 89 90 89 89 89 89 89 88 88 89 85 79 73 68 63 56 46 37 30 25 29 27 23
75 78 80 81 82 83 84 85 86 88 90 90 91 92 92 93 93 94 95 94 94 93 92 87 83 81 75 68 64 57 46 34 27 23 22 20 25 27
76 77 77 79 82 84 86 88 90 92 93 93 95 96 97 98 98 99 99 99 96 91 86 82 77 72 69 63 55 43 33 26 24 21 23 25 27 26
76 78 79 81 84 87 89 91 92 94 96 98 99 100 100 101 102 102 100 96 91 86 81 77 73 69 62 54 43 33 28 24 23 23 24 27 27 26
78 80 82 85 87 90 93 95 97 99 100 101 103 104 105 105 102 98 94 90 86 82 78 73 67 61 53 41 30 26 26 23 21 25 27 30 30 18
81 84 87 91 93 95 98 100 102 103 105 107 107 106 104 100 96 94 90 87 82 75 69 64 58 51 41 30 24 26 27 26 27 28 30 29 23 18
88 90 93 95 98 101 104 106 107 108 108 106 103 100 98 96 92 89 84 79 74 68 61 53 46 38 30 28 32 30 25 25 25 26 29 26 19 18
93 96 99 102 105 107 108 108 107 104 101 99 96 94 91 87 83 79 74 68 60 51 45 35 31 29 28 33 32 29 28 27 30 28 22 17 17 17

GFSNE_500_spd_084.txt.gz
Wind_Speed
30 33 35 37 41 44 45 47 42 43 48 49 50 44 44 49 46 49 50 52 54 53 54 56 57 60 61 62 65 65 65 66 64 67 71 72 74 76
33 35 42 45 46 44 52 47 51 48 50 48 47 47 52 51 50 51 54 55 57 57 58 59 61 61 66 65 68 68 68 66 69 72 74 74 76 78
37 43 39 45 40 41 49 52 46 44 47 47 48 47 56 55 59 60 59 58 60 60 61 62 63 64 65 67 68 67 68 71 74 76 75 77 77 78
36 40 46 36 34 33 43 39 39 44 52 51 56 58 59 61 64 63 63 61 62 64 65 66 67 68 69 71 71 71 73 76 79 79 79 79 79 79
35 27 31 32 35 35 38 41 44 48 50 54 57 60 64 65 67 67 66 66 66 66 68 69 71 72 73 74 74 76 79 81 82 82 80 80 79 79
30 30 33 36 37 39 40 43 45 47 52 56 58 56 67 67 66 68 68 68 68 70 71 71 73 74 75 74 78 82 83 82 83 82 80 79 79 80
32 34 37 40 41 42 45 48 50 50 55 63 63 64 67 68 67 68 68 70 72 71 71 71 71 73 77 81 85 84 82 83 83 81 80 79 79 81
39 40 43 44 45 48 49 52 55 57 60 64 66 67 68 68 69 69 70 72 71 71 73 75 77 80 84 85 85 84 84 85 83 81 81 81 82 83
45 46 47 48 50 52 54 57 59 61 64 65 66 67 68 69 71 71 72 75 77 76 79 81 84 84 86 87 87 86 86 84 83 82 83 83 83 84
48 49 51 53 54 56 59 61 63 64 65 65 65 66 66 69 71 74 79 83 85 87 88 86 87 87 88 89 87 85 85 85 85 85 84 83 84 81
50 52 53 55 56 59 61 63 64 64 66 67 69 71 72 75 78 80 85 86 84 86 88 89 90 90 86 84 84 85 85 86 87 86 84 85 81 72
50 52 53 55 56 59 62 65 67 69 70 73 76 78 78 78 82 89 87 87 89 89 92 90 88 89 84 84 85 87 89 89 88 87 87 80 71 63
54 55 56 58 61 64 66 68 72 73 75 76 79 81 83 88 88 87 90 90 90 91 91 91 89 90 91 89 87 88 88 88 88 87 77 66 59 56
55 57 57 58 62 65 68 69 73 77 80 84 85 83 84 86 88 89 91 92 93 93 92 94 93 92 93 91 88 85 87 88 82 73 63 58 54 47
58 61 64 67 71 72 72 74 78 80 81 82 83 85 86 88 91 93 93 95 96 96 96 95 95 93 93 91 90 89 82 74 69 61 57 52 44 39
65 64 70 74 74 74 76 77 78 79 81 84 86 89 91 94 95 97 99 100 100 100 100 99 99 99 96 92 88 78 70 64 60 55 50 42 37 28
74 71 71 73 76 77 76 78 81 83 85 88 91 94 97 99 102 103 104 104 104 103 102 101 99 94 88 82 75 68 62 59 52 46 40 33 29 28
71 74 77 77 76 77 78 80 84 87 90 93 97 100 102 104 106 107 108 108 107 105 103 99 93 88 82 76 72 63 57 49 43 37 30 27 26 25
73 75 76 78 78 79 83 87 90 93 96 100 103 106 108 110 111 110 110 109 104 99 94 90 87 84 78 70 61 57 46 39 34 29 25 27 25 26
75 75 75 77 82 86 89 92 96 100 103 106 109 110 111 111 110 108 104 100 97 93 89 84 80 76 70 60 50 44 35 30 26 25 25 30 27 27
73 74 80 84 88 91 95 98 102 105 108 110 111 110 108 105 101 99 96 93 89 85 80 76 71 66 60 51 40 33 28 27 30 28 27 26 27 25
77 83 87 90 93 97 101 105 108 109 109 107 104 101 99 96 93 90 85 80 75 70 64 58 53 48 43 35 27 26 30 32 31 29 26 23 26 28
85 88 92 96 100 103 106 106 105 103 100 98 96 93 90 85 79 71 65 59 54 48 43 38 35 31 27 22 24 36 36 33 29 23 22 25 25 25

GFSNE_500_spd_087.txt.gz
Wind_Speed
25 26 27 26 29 32 35 40 45 46 46 46 47 50 49 41 43 42 46 49 54 53 50 54 57 58 57 59 61 63 64 64 66 69 69 71 71 73
25 26 28 29 33 37 40 43 43 41 39 43 48 50 43 43 48 46 48 55 58 58 55 55 58 60 62 63 65 66 66 68 70 71 73 75 76 77
30 31 31 33 38 41 41 44 38 41 39 43 40 37 47 54 54 47 57 58 60 62 63 64 66 65 66 67 69 69 70 71 73 74 77 79 78 79
35 35 33 39 38 37 32 35 38 40 43 43 44 45 49 54 56 60 60 64 62 67 69 72 70 69 69 70 71 73 74 75 73 75 77 79 81 84
27 28 31 34 35 38 35 37 41 44 47 48 48 44 56 56 59 62 65 68 69 71 74 72 71 71 72 75 75 74 75 75 78 80 83 84 86 87
27 30 31 34 35 40 41 43 45 48 50 50 55 56 60 61 62 67 69 72 75 75 74 73 73 72 72 73 76 78 80 82 83 83 84 86 87 87
32 34 36 37 40 42 46 49 49 51 54 55 58 61 65 66 67 70 71 73 74 74 73 74 72 72 74 78 83 83 83 84 85 86 86 86 86 85
38 39 41 43 45 46 52 54 55 57 59 62 63 64 68 68 70 71 74 73 74 76 77 77 79 79 79 85 84 84 86 88 88 87 86 84 83 82
42 44 47 49 51 53 56 58 60 61 62 64 65 67 71 71 73 73 75 76 77 79 83 84 85 83 86 89 88 88 89 89 88 87 85 85 84 83
47 50 51 53 55 57 59 61 62 63 64 65 68 71 71 73 75 76 78 80 82 84 85 85 88 90 88 89 89 87 88 88 89 89 87 86 83 82
49 50 51 53 55 58 61 63 64 66 65 70 70 72 74 76 78 81 84 83 83 88 91 90 89 90 88 88 90 91 90 90 90 88 86 86 83 81
49 51 53 55 59 61 64 65 66 68 69 72 72 74 75 76 80 82 84 88 89 86 90 91 91 92 91 92 94 95 95 94 92 90 86 83 82 84
52 54 55 57 57 59 61 64 67 70 74 72 76 79 80 82 81 83 88 87 88 88 90 94 95 97 99 98 98 99 98 94 90 88 87 86 82 77
55 56 57 60 63 65 67 69 70 72 74 77 81 83 83 83 83 83 84 87 89 92 94 98 100 103 105 105 103 98 96 93 90 86 83 80 74 65
62 61 64 68 68 70 74 74 74 77 78 79 82 82 82 84 84 86 89 92 95 98 101 105 108 109 110 109 107 101 97 89 84 79 73 68 64 57
65 67 71 72 72 75 78 76 78 80 81 81 82 83 84 86 90 94 96 99 103 106 109 112 114 115 113 110 107 99 90 83 75 69 65 60 56 51
71 70 71 69 69 71 73 76 78 79 80 80 80 83 89 93 96 100 104 107 111 114 116 118 118 116 112 104 97 89 81 74 66 59 56 50 47 43
68 69 69 69 70 73 75 77 79 81 80 81 86 92 95 99 103 107 111 115 118 118 117 113 111 107 102 94 90 82 73 65 55 48 41 33 37 35
69 69 69 71 74 77 79 81 82 82 84 90 95 98 102 106 110 115 117 118 116 113 109 104 100 96 92 85 75 71 64 54 45 37 31 28 31 26
67 68 71 75 78 80 80 80 82 88 93 96 100 105 109 113 115 115 113 110 106 101 96 91 87 83 80 72 63 51 50 39 34 27 29 32 29 27
73 75 78 80 81 80 80 85 90 94 98 103 107 110 112 111 110 106 101 96 92 86 79 73 69 65 60 54 44 33 35 28 27 33 31 29 25 25
77 78 79 79 80 83 88 92 96 100 104 107 107 107 105 100 95 91 86 79 73 66 61 56 51 46 40 34 25 19 24 22 28 34 30 27 25 24
77 77 79 82 86 90 94 97 101 102 102 101 99 95 89 84 79 73 66 59 54 50 45 39 34 29 22 15 11 17 22 32 36 32 36 31 23 24

GFSNE_500_spd_093.txt.gz
Wind_Speed
19 20 17 18 19 20 20 22 25 26 28 31 35 36 39 41 40 40 39 40 43 44 43 42 46 46 49 51 54 53 56 59 61 62 61 61 63 61
20 21 20 21 21 21 23 26 28 31 36 35 37 36 37 38 38 38 40 46 48 48 48 49 49 51 56 59 58 58 60 63 63 64 65 65 64 64
21 19 19 22 25 25 28 32 34 36 39 37 37 41 39 39 38 40 45 45 48 50 50 51 55 58 60 61 60 62 65 65 64 67 67 68 68 66
22 25 24 28 30 33 35 37 38 38 43 42 41 38 39 41 43 46 47 49 51 53 54 57 60 61 62 63 61 64 67 70 73 74 74 74 71 73
27 28 29 34 36 35 37 37 39 39 41 42 42 41 40 42 46 47 49 55 56 57 59 62 63 64 63 62 64 71 74 76 78 80 81 80 81 80
30 33 35 35 37 40 40 38 39 40 42 43 44 46 47 48 50 52 54 54 60 60 62 63 66 65 65 67 72 78 78 81 81 81 82 83 84 84
37 38 37 38 39 40 40 39 39 43 44 45 49 49 50 54 55 54 53 65 57 63 61 65 69 71 71 74 81 83 85 85 85 86 86 86 88 87
33 35 41 42 41 41 42 43 45 48 49 51 53 55 55 56 55 58 58 59 62 62 64 65 69 69 77 87 88 88 88 88 92 93 93 92 90 91
37 39 40 43 41 43 45 48 45 51 55 56 57 58 57 58 60 60 58 65 65 69 71 66 71 76 86 89 91 92 93 94 93 94 94 92 92 91
36 38 41 41 42 44 40 45 54 57 57 58 57 59 62 64 63 64 69 72 72 75 77 77 81 85 90 94 95 94 95 94 93 94 94 92 94 97
39 42 43 43 48 50 48 55 49 61 60 59 62 65 67 68 69 72 73 76 80 83 86 86 86 88 90 93 93 95 95 96 97 96 95 97 102 105
41 42 45 47 49 52 55 56 58 62 64 67 69 68 70 73 77 81 84 85 87 88 89 91 92 92 90 91 93 95 98 99 98 99 102 106 108 111
46 46 47 47 50 53 59 62 64 66 68 69 71 75 79 82 86 89 92 93 89 89 89 90 91 92 94 93 94 96 98 99 103 106 110 113 116 118
49 49 51 53 52 64 62 66 68 71 74 74 77 80 82 87 90 91 91 89 87 88 91 93 94 96 97 97 97 98 101 105 109 113 116 118 119 114
53 57 52 65 69 62 68 69 72 74 75 79 81 81 83 82 82 81 83 86 91 94 94 95 98 98 100 102 104 106 109 110 114 117 120 118 112 103
60 65 65 58 69 77 72 70 71 75 76 78 81 83 77 78 83 84 86 88 90 92 93 95 98 101 104 109 112 114 117 118 117 115 111 103 92 80
59 62 61 73 72 73 71 70 70 70 70 72 75 77 79 80 82 84 86 88 89 91 95 99 103 106 109 114 116 116 116 112 105 99 90 80 67 54
59 55 62 67 67 66 67 66 66 70 72 71 74 79 82 85 87 88 88 90 93 97 101 104 106 109 110 108 109 107 102 96 85 76 67 55 39 33
44 45 48 51 52 55 58 62 65 68 70 72 76 79 82 84 86 88 91 94 97 101 106 107 108 107 102 94 87 88 86 78 66 53 44 32 18 22
52 52 55 61 64 67 67 69 70 73 74 76 79 81 82 84 87 91 94 97 101 103 103 101 98 92 86 80 72 69 70 61 46 34 21 11 18 24
60 63 65 66 65 66 67 71 74 75 76 78 80 82 86 89 91 94 97 98 97 96 92 87 82 76 71 68 64 61 54 42 25 16 8 19 28 34
58 61 63 64 66 67 70 73 74 75 77 80 84 87 89 91 92 92 92 90 88 83 77 73 68 63 61 58 56 48 34 23 13 4 20 36 36 35
60 63 65 68 69 70 72 75 77 79 82 84 86 87 88 87 87 85 83 80 74 70 66 61 56 54 52 49 43 29 16 4 8 20 41 37 34 26

GFSNE_500_spd_096.txt.gz
Wind_Speed
28 25 18 17 24 24 26 28 31 28 26 24 25 27 32 36 36 38 40 38 39 41 38 40 41 43 45 45 46 48 51 53 55 55 55 55 57 58
26 24 23 30 28 29 29 30 31 29 27 27 30 33 37 38 40 40 39 41 41 41 43 43 43 44 48 49 48 51 53 55 56 56 57 58 60 64
29 29 28 29 31 30 31 30 31 32 36 31 33 37 40 40 40 43 41 39 44 43 45 48 48 50 51 54 54 55 54 56 56 58 60 63 66 72
33 35 34 32 31 32 33 33 33 35 40 40 38 41 44 44 43 42 42 42 47 45 49 48 53 56 56 58 57 55 62 59 60 60 66 67 74 80
31 30 31 35 34 34 35 36 36 39 43 44 43 45 45 44 44 45 46 48 51 51 54 54 58 60 61 56 52 65 71 66 68 69 70 78 83 87
31 32 33 33 35 37 39 40 42 45 44 45 48 48 47 46 46 48 51 52 55 56 58 56 57 60 59 62 61 64 68 68 72 78 81 87 91 95
35 38 38 40 42 42 42 42 44 45 48 46 47 47 48 52 51 54 56 59 59 61 59 62 62 62 61 66 69 69 70 74 76 81 88 93 96 98
33 36 38 38 41 43 45 47 47 48 48 49 50 47 52 46 53 56 61 63 63 63 64 64 62 64 72 76 75 77 78 80 86 90 91 94 95 97
38 38 40 41 39 40 42 44 47 50 50 49 48 53 56 56 57 61 64 64 68 69 68 67 69 73 76 79 83 86 88 90 91 92 94 97 99 98
39 39 40 41 43 45 47 48 50 50 50 54 59 53 61 52 55 67 67 70 72 72 72 73 77 80 84 88 91 94 96 95 95 97 100 100 100 101
37 39 40 41 42 44 45 48 51 54 55 58 54 55 58 63 67 69 70 74 77 79 81 84 85 88 91 94 95 96 95 96 99 99 99 101 102 104
38 39 41 43 44 45 47 49 55 55 56 57 65 57 64 65 69 71 76 80 79 82 83 88 92 95 94 92 92 93 94 95 98 100 101 103 106 108
41 44 45 46 48 48 49 50 53 54 58 66 67 67 64 70 74 79 83 82 82 83 86 88 87 85 87 89 92 95 97 98 99 100 103 106 109 114
49 48 46 54 58 59 57 56 58 58 70 70 67 67 66 75 82 84 83 84 84 84 82 84 85 90 93 94 96 96 99 101 102 104 107 110 112 117
53 57 56 54 58 75 73 71 75 67 70 74 66 68 74 79 82 81 77 76 77 82 85 87 91 94 96 98 97 98 100 102 107 110 112 113 114 112
63 64 73 71 76 72 78 80 78 72 68 63 67 71 68 64 68 74 79 79 81 83 86 90 91 93 94 97 101 102 106 110 110 113 111 108 105 100
68 59 66 68 75 81 77 80 69 63 62 63 65 67 70 71 77 80 83 82 84 84 87 90 91 94 98 102 106 109 111 111 111 107 102 96 87 83
64 72 71 77 67 63 65 55 50 52 55 62 67 72 78 83 85 83 84 85 86 87 89 92 94 97 101 106 109 110 110 102 95 89 86 80 68 65
70 70 68 58 47 50 52 55 59 64 68 74 77 80 80 79 78 80 83 85 88 91 94 97 98 101 102 101 99 99 97 87 79 72 70 60 49 37
44 44 47 50 53 57 60 64 67 68 68 70 71 73 76 79 82 84 86 88 91 94 97 99 100 99 97 91 85 77 78 71 63 59 50 37 21 5
44 47 49 52 56 57 59 60 63 67 71 74 77 80 81 82 83 86 88 91 93 95 94 94 92 89 82 76 70 61 59 59 51 38 23 7 12 29
51 53 56 55 55 58 61 66 69 71 73 75 77 76 78 82 85 89 90 90 90 88 85 82 80 74 70 62 54 50 48 43 28 10 7 21 25 29
54 55 57 57 59 63 66 68 70 71 73 74 75 79 82 85 88 88 86 81 79 77 75 71 68 63 58 50 44 41 35 17 4 27 32 30 29 28